GFSCGP_prec_precacc_147.txt.gz
Total_Precipitation_Accumulation
0.01 0.00 0.01 0.00 0.00 0.01 0.01 0.01 0.03 0.01 0.00 0.00 0.00 0.01 0.02 0.03 0.04 0.04 0.02 0.01 0.01 0.00 0.01 0.05 0.08 0.11 0.12 0.20 0.56 0.70 0.86 0.73 0.54 0.42 0.41 0.38 0.41 0.33 0.38 0.37 0.55 0.72 1.14 1.32
0.04 0.04 0.01 0.00 0.01 0.03 0.05 0.09 0.04 0.01 0.01 0.06 0.04 0.01 0.00 0.01 0.17 0.03 0.01 0.01 0.00 0.00 0.00 0.01 0.02 0.08 0.22 0.43 0.48 0.41 0.33 0.20 0.20 0.17 0.28 0.34 0.37 0.30 0.25 0.32 0.43 1.00 1.07 1.14
0.07 0.03 0.00 0.01 0.02 0.02 0.02 0.02 0.00 0.01 0.05 0.17 0.11 0.03 0.00 0.00 0.02 0.05 0.03 0.03 0.01 0.01 0.04 0.06 0.09 0.12 0.12 0.10 0.06 0.09 0.15 0.10 0.21 0.23 0.23 0.28 0.41 0.48 0.41 0.38 0.42 0.73 0.79 0.89
0.04 0.00 0.01 0.04 0.04 0.04 0.06 0.02 0.01 0.02 0.17 0.20 0.18 0.15 0.02 0.01 0.00 0.08 0.02 0.04 0.04 0.05 0.05 0.03 0.01 0.01 0.01 0.05 0.08 0.12 0.13 0.19 0.21 0.33 0.14 0.26 0.20 0.22 0.22 0.26 0.28 0.51 0.64 0.71
0.06 0.01 0.02 0.03 0.02 0.02 0.02 0.01 0.04 0.09 0.12 0.17 0.12 0.28 0.05 0.07 0.14 0.23 0.18 0.17 0.10 0.08 0.07 0.06 0.03 0.05 0.06 0.05 0.08 0.09 0.13 0.25 0.27 0.26 0.20 0.35 0.30 0.22 0.19 0.27 0.36 0.47 0.62 0.57
0.02 0.02 0.07 0.05 0.01 0.02 0.06 0.06 0.20 0.22 0.17 0.24 0.03 0.18 0.11 0.17 0.45 0.45 0.49 0.26 0.14 0.13 0.18 0.16 0.14 0.14 0.12 0.11 0.23 0.12 0.13 0.13 0.29 0.35 0.39 0.48 0.63 0.47 0.29 0.23 0.25 0.34 0.54 0.49
0.07 0.08 0.02 0.01 0.05 0.03 0.06 0.16 0.37 0.52 0.43 0.16 0.09 0.15 0.17 0.27 0.31 0.61 0.77 0.46 0.19 0.20 0.17 0.16 0.21 0.32 0.29 0.28 0.35 0.18 0.10 0.16 0.23 0.41 0.55 0.60 1.09 1.25 1.16 0.74 0.44 0.52 0.60 0.47
0.16 0.24 0.05 0.01 0.02 0.03 0.06 0.15 0.32 0.70 0.53 0.27 0.19 0.24 0.42 0.38 0.52 0.45 0.31 0.64 0.26 0.25 0.24 0.28 0.61 0.43 0.38 0.50 0.57 0.39 0.22 0.28 0.31 0.46 0.72 0.74 0.80 1.07 1.78 1.93 1.96 1.56 1.09 0.85
0.36 0.43 0.03 0.02 0.03 0.03 0.03 0.08 0.11 0.53 0.52 0.72 0.61 0.68 0.77 0.32 0.58 0.92 0.73 0.45 0.41 0.26 0.31 0.46 0.55 0.32 0.31 1.01 1.23 0.70 0.52 0.36 0.37 0.45 0.62 0.65 0.92 1.28 1.58 2.05 2.32 3.07 2.90 2.16
0.39 0.86 0.07 0.06 0.07 0.04 0.03 0.09 0.43 0.86 1.13 0.81 0.43 0.79 1.29 1.24 1.33 1.43 1.20 0.83 0.67 0.45 0.39 0.45 0.73 0.31 0.32 1.25 1.06 0.69 0.73 0.83 0.69 0.47 0.49 0.61 0.74 0.95 1.36 1.64 2.56 2.80 3.20 3.51
0.25 0.88 0.19 0.04 0.14 0.03 0.02 0.13 0.39 0.62 0.37 0.98 1.06 1.34 1.43 1.87 1.69 1.31 1.48 1.39 0.84 0.69 0.79 0.52 0.66 0.46 0.34 0.66 1.08 1.10 0.89 1.28 1.36 1.21 1.13 0.85 1.10 1.08 1.43 1.59 1.97 2.66 2.50 2.61
0.07 0.31 0.11 0.04 0.03 0.03 0.03 0.05 0.20 0.77 0.76 1.08 1.62 1.90 2.13 1.51 0.85 0.74 0.96 1.41 1.13 0.77 1.13 0.84 0.66 0.62 0.60 0.47 0.60 1.23 1.35 1.70 2.01 2.58 2.54 1.68 1.79 1.77 1.64 1.83 1.87 1.86 2.14 2.31
0.14 0.25 0.28 0.27 0.19 0.38 0.21 0.13 0.21 0.46 0.90 1.52 1.64 2.04 1.94 1.25 0.77 0.65 0.75 0.90 1.04 0.94 0.90 1.07 0.83 0.57 0.72 0.61 1.01 1.09 1.33 1.41 2.36 3.02 3.11 2.12 2.27 2.03 2.02 2.11 1.93 1.59 1.47 1.42
0.10 0.24 0.43 0.60 0.65 0.76 0.62 0.53 0.42 0.91 1.45 1.06 0.88 0.89 0.94 1.34 1.21 0.91 0.65 0.59 0.82 0.94 0.91 0.97 0.91 0.78 0.64 0.65 1.06 1.03 1.09 1.30 1.93 2.02 2.47 2.35 2.17 2.46 1.83 1.56 1.77 1.87 1.55 1.49
0.17 0.56 0.51 0.48 0.62 0.47 0.68 1.14 1.18 0.90 0.76 0.85 0.92 0.61 0.50 0.67 1.13 1.04 0.94 0.75 0.66 0.95 0.68 0.76 0.70 0.78 0.75 0.62 0.67 0.71 0.75 0.93 1.18 1.30 1.38 1.65 2.10 2.16 1.99 2.03 2.08 1.85 1.90 2.03
0.23 0.70 0.84 0.66 0.61 0.37 0.55 0.92 0.65 0.63 0.97 0.87 0.53 0.73 0.55 0.55 0.75 0.90 0.97 0.85 0.53 0.69 0.69 0.89 0.66 0.52 0.61 0.51 0.47 0.51 0.58 0.69 0.70 0.72 0.89 0.81 0.71 0.89 1.22 1.37 1.32 1.07 1.40 1.74
0.25 0.42 0.50 0.40 0.26 0.18 0.54 0.82 0.50 0.30 0.27 0.26 0.19 0.40 0.43 0.52 0.48 0.78 0.87 0.86 0.75 0.72 0.68 0.96 0.90 0.67 0.59 0.66 0.64 0.65 0.65 0.70 0.65 0.66 0.77 0.72 0.63 0.71 0.67 0.87 0.96 1.03 0.99 1.31
0.29 0.26 0.43 0.33 0.34 0.67 0.67 0.28 0.15 0.04 0.06 0.07 0.06 0.15 0.20 0.34 0.47 0.78 0.87 0.88 0.93 0.85 0.87 1.14 1.20 0.91 0.71 0.72 0.63 0.62 0.64 0.67 0.88 0.86 0.89 0.94 0.83 0.75 0.74 0.82 0.83 1.22 1.61 1.37
0.20 0.36 0.64 0.64 0.39 0.45 0.26 0.09 0.05 0.10 0.12 0.08 0.09 0.13 0.17 0.18 0.27 0.69 0.91 0.62 0.80 0.70 0.51 0.39 0.59 0.85 0.82 0.70 0.64 0.59 0.60 0.55 0.55 0.84 0.94 0.96 1.05 1.15 1.10 1.09 1.27 1.31 1.23 1.07
0.35 0.39 0.70 0.80 0.59 0.43 0.20 0.06 0.03 0.04 0.19 0.08 0.05 0.06 0.07 0.15 0.37 0.39 0.48 0.47 0.60 0.34 0.16 0.07 0.05 0.12 0.30 0.49 0.62 0.57 0.58 0.61 0.54 0.62 0.84 0.98 1.06 1.32 1.54 1.67 1.51 1.24 1.16 1.22
0.31 0.52 0.68 0.71 0.65 0.21 0.05 0.09 0.09 0.30 0.43 0.10 0.08 0.05 0.06 0.11 0.24 0.35 0.28 0.52 0.68 0.13 0.02 0.01 0.01 0.01 0.02 0.05 0.17 0.31 0.38 0.52 0.64 0.55 0.61 0.84 1.10 1.13 1.23 1.27 1.32 1.37 1.34 1.23
0.23 0.38 0.42 0.57 0.69 0.36 0.12 0.27 0.38 0.40 0.19 0.09 0.11 0.10 0.10 0.17 0.33 0.43 0.49 0.52 0.31 0.10 0.01 0.00 0.00 0.00 0.00 0.00 0.01 0.08 0.16 0.16 0.23 0.36 0.42 0.44 0.47 0.65 0.74 0.85 0.98 0.99 1.02 1.09
0.54 0.28 0.30 0.27 0.34 0.37 0.33 0.44 0.36 0.19 0.23 0.23 0.16 0.12 0.18 0.43 0.66 0.74 0.71 0.57 0.31 0.09 0.01 0.00 0.00 0.00 0.00 0.01 0.02 0.07 0.10 0.09 0.09 0.11 0.16 0.22 0.22 0.25 0.39 0.54 0.62 0.67 0.75 0.78
0.67 0.69 0.79 0.91 0.76 0.42 0.51 0.48 0.27 0.27 0.32 0.26 0.16 0.18 0.26 0.33 0.40 0.42 0.40 0.37 0.23 0.07 0.02 0.02 0.02 0.02 0.05 0.06 0.06 0.09 0.08 0.08 0.09 0.09 0.08 0.08 0.10 0.15 0.15 0.19 0.26 0.34 0.44 0.51
0.45 0.65 0.75 1.22 0.90 0.65 0.60 1.07 0.59 0.30 0.21 0.14 0.07 0.05 0.06 0.06 0.05 0.06 0.07 0.07 0.06 0.05 0.04 0.04 0.06 0.08 0.06 0.05 0.08 0.12 0.13 0.11 0.11 0.10 0.10 0.10 0.10 0.11 0.09 0.15 0.26 0.29 0.51 0.57
0.17 0.43 0.88 1.10 1.21 1.09 0.99 0.91 0.79 0.56 0.37 0.19 0.10 0.07 0.06 0.03 0.03 0.05 0.10 0.11 0.06 0.04 0.05 0.06 0.06 0.07 0.09 0.09 0.12 0.13 0.12 0.12 0.13 0.15 0.16 0.23 0.20 0.19 0.18 0.19 0.27 0.39 0.50 0.55

GFSCGP_prec_precacc_150.txt.gz
Total_Precipitation_Accumulation
0.01 0.00 0.01 0.00 0.00 0.01 0.01 0.01 0.03 0.01 0.00 0.00 0.00 0.01 0.02 0.03 0.04 0.04 0.02 0.01 0.01 0.00 0.01 0.05 0.08 0.11 0.12 0.20 0.56 0.70 0.86 0.73 0.54 0.42 0.41 0.38 0.41 0.33 0.38 0.37 0.55 0.72 1.14 1.32
0.04 0.04 0.01 0.00 0.01 0.03 0.05 0.09 0.04 0.01 0.01 0.06 0.04 0.01 0.00 0.01 0.17 0.03 0.01 0.01 0.00 0.00 0.00 0.01 0.02 0.08 0.22 0.43 0.48 0.41 0.33 0.20 0.20 0.17 0.28 0.34 0.37 0.30 0.25 0.32 0.43 1.00 1.07 1.14
0.07 0.03 0.00 0.01 0.02 0.02 0.02 0.02 0.00 0.01 0.05 0.17 0.11 0.03 0.00 0.00 0.02 0.05 0.03 0.03 0.01 0.01 0.04 0.06 0.09 0.12 0.12 0.10 0.06 0.09 0.15 0.10 0.21 0.23 0.23 0.28 0.41 0.48 0.41 0.38 0.42 0.73 0.79 0.89
0.04 0.00 0.01 0.04 0.04 0.04 0.06 0.02 0.01 0.02 0.17 0.20 0.18 0.15 0.02 0.01 0.00 0.08 0.02 0.04 0.04 0.05 0.05 0.03 0.01 0.01 0.01 0.05 0.08 0.12 0.13 0.19 0.21 0.33 0.14 0.26 0.20 0.22 0.22 0.26 0.28 0.51 0.64 0.71
0.06 0.01 0.02 0.03 0.02 0.02 0.02 0.01 0.04 0.09 0.12 0.17 0.12 0.28 0.05 0.07 0.14 0.23 0.18 0.17 0.10 0.08 0.07 0.06 0.03 0.05 0.06 0.05 0.08 0.09 0.13 0.25 0.27 0.26 0.20 0.35 0.30 0.22 0.19 0.27 0.36 0.47 0.62 0.57
0.02 0.02 0.07 0.05 0.01 0.02 0.06 0.06 0.20 0.22 0.17 0.24 0.03 0.18 0.11 0.17 0.45 0.45 0.49 0.26 0.14 0.13 0.18 0.16 0.14 0.14 0.12 0.11 0.23 0.12 0.13 0.13 0.29 0.35 0.39 0.48 0.63 0.47 0.29 0.23 0.25 0.34 0.54 0.49
0.07 0.08 0.02 0.01 0.05 0.03 0.06 0.16 0.37 0.52 0.43 0.16 0.09 0.15 0.17 0.27 0.31 0.61 0.77 0.46 0.19 0.20 0.17 0.16 0.21 0.32 0.29 0.28 0.35 0.18 0.10 0.16 0.23 0.41 0.55 0.60 1.09 1.25 1.16 0.74 0.44 0.53 0.60 0.47
0.16 0.24 0.05 0.01 0.02 0.03 0.06 0.15 0.32 0.70 0.53 0.27 0.19 0.24 0.42 0.38 0.52 0.45 0.31 0.64 0.26 0.25 0.24 0.28 0.61 0.43 0.38 0.50 0.57 0.39 0.22 0.28 0.31 0.46 0.72 0.74 0.80 1.07 1.78 1.93 1.96 1.57 1.10 0.86
0.36 0.43 0.03 0.02 0.03 0.03 0.03 0.08 0.11 0.53 0.52 0.72 0.61 0.68 0.77 0.32 0.58 0.92 0.73 0.45 0.41 0.26 0.31 0.46 0.55 0.32 0.31 1.01 1.23 0.70 0.52 0.36 0.37 0.45 0.62 0.65 0.92 1.28 1.58 2.05 2.33 3.07 2.91 2.17
0.39 0.86 0.07 0.06 0.07 0.04 0.03 0.09 0.43 0.86 1.13 0.81 0.43 0.79 1.29 1.24 1.34 1.43 1.20 0.83 0.67 0.45 0.39 0.45 0.73 0.31 0.32 1.25 1.06 0.69 0.73 0.83 0.69 0.47 0.49 0.61 0.74 0.95 1.36 1.64 2.56 2.80 3.21 3.52
0.25 0.88 0.19 0.04 0.14 0.03 0.02 0.13 0.39 0.62 0.37 0.98 1.07 1.34 1.44 1.87 1.69 1.31 1.48 1.39 0.84 0.69 0.79 0.52 0.66 0.46 0.34 0.66 1.08 1.10 0.89 1.28 1.36 1.21 1.13 0.85 1.10 1.08 1.43 1.59 1.97 2.66 2.51 2.62
0.07 0.31 0.11 0.04 0.03 0.03 0.03 0.05 0.20 0.77 0.76 1.08 1.65 1.91 2.13 1.51 0.85 0.74 0.96 1.41 1.13 0.77 1.13 0.84 0.66 0.62 0.60 0.47 0.60 1.23 1.35 1.70 2.01 2.58 2.54 1.68 1.79 1.77 1.64 1.83 1.87 1.87 2.14 2.32
0.14 0.25 0.28 0.27 0.19 0.38 0.21 0.13 0.21 0.46 0.90 1.52 1.64 2.04 1.94 1.25 0.77 0.65 0.75 0.90 1.04 0.94 0.90 1.07 0.83 0.57 0.72 0.61 1.01 1.09 1.33 1.41 2.36 3.02 3.11 2.12 2.27 2.03 2.02 2.11 1.93 1.59 1.47 1.42
0.10 0.24 0.43 0.60 0.65 0.77 0.62 0.53 0.42 0.91 1.45 1.06 0.88 0.89 0.94 1.34 1.21 0.91 0.65 0.59 0.82 0.94 0.91 0.97 0.91 0.78 0.64 0.65 1.06 1.03 1.09 1.30 1.93 2.02 2.48 2.35 2.17 2.46 1.83 1.56 1.77 1.87 1.55 1.49
0.17 0.56 0.51 0.48 0.62 0.47 0.68 1.14 1.18 0.90 0.76 0.85 0.92 0.61 0.50 0.67 1.13 1.04 0.94 0.75 0.66 0.95 0.68 0.76 0.70 0.78 0.75 0.62 0.67 0.71 0.75 0.93 1.18 1.30 1.38 1.65 2.10 2.16 1.99 2.03 2.08 1.85 1.90 2.03
0.23 0.70 0.84 0.66 0.61 0.37 0.55 0.92 0.65 0.63 0.97 0.87 0.53 0.73 0.55 0.55 0.75 0.91 0.98 0.86 0.53 0.69 0.69 0.89 0.66 0.52 0.61 0.51 0.47 0.51 0.58 0.69 0.70 0.72 0.89 0.81 0.71 0.89 1.22 1.37 1.32 1.07 1.40 1.74
0.25 0.42 0.50 0.40 0.26 0.18 0.54 0.82 0.50 0.30 0.27 0.26 0.19 0.40 0.43 0.52 0.48 0.78 0.90 0.87 0.75 0.72 0.68 0.97 0.90 0.67 0.59 0.66 0.64 0.65 0.65 0.70 0.65 0.66 0.77 0.72 0.63 0.71 0.67 0.87 0.96 1.03 0.99 1.31
0.29 0.26 0.43 0.33 0.34 0.67 0.67 0.28 0.15 0.04 0.06 0.07 0.06 0.15 0.21 0.35 0.47 0.78 0.87 0.88 0.93 0.85 0.87 1.14 1.20 0.91 0.71 0.72 0.63 0.62 0.64 0.67 0.88 0.86 0.89 0.94 0.83 0.75 0.74 0.82 0.83 1.22 1.61 1.37
0.20 0.36 0.64 0.64 0.39 0.45 0.26 0.09 0.05 0.10 0.12 0.08 0.09 0.13 0.17 0.18 0.27 0.70 0.91 0.62 0.81 0.70 0.51 0.39 0.59 0.85 0.82 0.70 0.64 0.59 0.60 0.55 0.55 0.84 0.94 0.96 1.05 1.15 1.10 1.09 1.27 1.31 1.23 1.07
0.35 0.39 0.70 0.80 0.59 0.43 0.20 0.06 0.03 0.04 0.19 0.08 0.05 0.06 0.07 0.15 0.38 0.42 0.49 0.48 0.60 0.34 0.16 0.07 0.05 0.12 0.30 0.49 0.62 0.57 0.58 0.61 0.54 0.62 0.84 0.98 1.06 1.32 1.54 1.67 1.51 1.24 1.16 1.22
0.32 0.52 0.68 0.72 0.65 0.21 0.05 0.09 0.09 0.30 0.44 0.11 0.08 0.06 0.06 0.12 0.25 0.35 0.28 0.52 0.68 0.13 0.02 0.01 0.01 0.01 0.02 0.05 0.17 0.31 0.38 0.52 0.64 0.55 0.61 0.84 1.10 1.13 1.23 1.27 1.32 1.37 1.34 1.24
0.23 0.38 0.42 0.58 0.70 0.37 0.12 0.27 0.38 0.40 0.19 0.09 0.11 0.10 0.11 0.17 0.33 0.43 0.49 0.52 0.31 0.10 0.01 0.00 0.00 0.00 0.00 0.00 0.01 0.08 0.16 0.16 0.23 0.36 0.42 0.44 0.47 0.65 0.74 0.85 0.98 0.99 1.02 1.09
0.54 0.29 0.30 0.28 0.34 0.37 0.33 0.44 0.36 0.19 0.23 0.23 0.16 0.12 0.18 0.43 0.66 0.74 0.71 0.57 0.31 0.09 0.01 0.00 0.00 0.00 0.00 0.01 0.02 0.07 0.10 0.09 0.09 0.11 0.16 0.22 0.22 0.25 0.39 0.54 0.62 0.67 0.75 0.78
0.67 0.69 0.79 0.91 0.76 0.42 0.51 0.48 0.27 0.27 0.32 0.26 0.16 0.18 0.26 0.34 0.40 0.42 0.40 0.37 0.23 0.07 0.02 0.02 0.02 0.02 0.05 0.06 0.06 0.09 0.08 0.08 0.09 0.09 0.08 0.08 0.10 0.15 0.15 0.19 0.26 0.34 0.44 0.51
0.45 0.65 0.76 1.23 0.90 0.65 0.60 1.07 0.59 0.30 0.21 0.14 0.07 0.05 0.06 0.06 0.05 0.06 0.07 0.07 0.06 0.05 0.04 0.04 0.06 0.08 0.06 0.05 0.08 0.12 0.13 0.11 0.11 0.10 0.10 0.10 0.10 0.11 0.09 0.15 0.26 0.29 0.51 0.57
0.17 0.44 0.91 1.11 1.22 1.10 1.00 0.91 0.79 0.56 0.37 0.19 0.10 0.07 0.06 0.03 0.03 0.05 0.10 0.11 0.06 0.04 0.05 0.06 0.06 0.07 0.09 0.09 0.12 0.13 0.12 0.12 0.13 0.15 0.16 0.23 0.20 0.19 0.18 0.19 0.27 0.39 0.50 0.55

GFSCGP_prec_precacc_153.txt.gz
Total_Precipitation_Accumulation
0.01 0.00 0.01 0.00 0.00 0.01 0.01 0.01 0.03 0.01 0.00 0.00 0.00 0.01 0.02 0.03 0.04 0.04 0.02 0.01 0.01 0.00 0.01 0.05 0.08 0.11 0.12 0.20 0.56 0.70 0.86 0.73 0.54 0.42 0.41 0.38 0.41 0.33 0.38 0.37 0.55 0.72 1.14 1.32
0.04 0.04 0.01 0.00 0.01 0.03 0.05 0.09 0.04 0.01 0.01 0.06 0.04 0.01 0.00 0.01 0.17 0.03 0.01 0.01 0.00 0.00 0.00 0.01 0.02 0.08 0.22 0.43 0.48 0.41 0.33 0.20 0.20 0.17 0.28 0.34 0.37 0.30 0.25 0.32 0.43 1.00 1.07 1.14
0.07 0.03 0.00 0.01 0.02 0.02 0.02 0.02 0.00 0.01 0.05 0.17 0.11 0.03 0.00 0.00 0.02 0.05 0.03 0.03 0.01 0.01 0.04 0.06 0.09 0.12 0.12 0.10 0.06 0.09 0.15 0.10 0.21 0.23 0.23 0.28 0.41 0.48 0.41 0.38 0.42 0.73 0.79 0.89
0.04 0.00 0.01 0.04 0.04 0.04 0.06 0.02 0.01 0.02 0.17 0.20 0.18 0.15 0.02 0.01 0.00 0.08 0.02 0.04 0.04 0.05 0.05 0.03 0.01 0.01 0.01 0.05 0.08 0.12 0.13 0.19 0.21 0.33 0.14 0.26 0.20 0.22 0.22 0.26 0.28 0.51 0.64 0.71
0.06 0.01 0.02 0.03 0.02 0.02 0.02 0.01 0.04 0.09 0.12 0.17 0.12 0.28 0.05 0.07 0.14 0.23 0.18 0.17 0.10 0.08 0.07 0.06 0.03 0.05 0.06 0.05 0.08 0.09 0.13 0.25 0.27 0.26 0.20 0.35 0.30 0.22 0.19 0.27 0.36 0.47 0.62 0.57
0.02 0.02 0.07 0.05 0.01 0.02 0.06 0.06 0.20 0.22 0.17 0.24 0.03 0.18 0.11 0.17 0.45 0.45 0.49 0.26 0.14 0.13 0.18 0.16 0.14 0.14 0.12 0.11 0.23 0.12 0.13 0.13 0.29 0.35 0.39 0.48 0.63 0.47 0.29 0.23 0.25 0.34 0.54 0.49
0.07 0.08 0.02 0.01 0.05 0.03 0.06 0.16 0.37 0.52 0.43 0.16 0.09 0.15 0.17 0.27 0.31 0.61 0.77 0.46 0.19 0.20 0.17 0.16 0.21 0.32 0.29 0.28 0.35 0.18 0.10 0.16 0.23 0.41 0.55 0.60 1.09 1.25 1.16 0.74 0.44 0.53 0.61 0.48
0.16 0.24 0.05 0.01 0.02 0.03 0.06 0.15 0.32 0.70 0.53 0.27 0.19 0.24 0.42 0.38 0.52 0.45 0.31 0.64 0.26 0.25 0.24 0.28 0.61 0.43 0.38 0.50 0.57 0.39 0.22 0.28 0.31 0.46 0.72 0.74 0.80 1.07 1.78 1.93 1.96 1.57 1.10 0.86
0.36 0.43 0.03 0.02 0.03 0.03 0.03 0.08 0.11 0.53 0.52 0.72 0.61 0.68 0.77 0.32 0.58 0.92 0.73 0.45 0.41 0.26 0.31 0.46 0.55 0.32 0.31 1.01 1.23 0.70 0.52 0.36 0.37 0.45 0.62 0.65 0.92 1.28 1.58 2.05 2.33 3.07 2.91 2.17
0.39 0.86 0.07 0.06 0.07 0.04 0.03 0.09 0.43 0.86 1.13 0.81 0.43 0.79 1.29 1.24 1.34 1.43 1.20 0.83 0.67 0.45 0.39 0.45 0.73 0.31 0.32 1.25 1.06 0.69 0.73 0.83 0.69 0.47 0.49 0.61 0.74 0.95 1.36 1.64 2.56 2.80 3.21 3.52
0.25 0.88 0.19 0.04 0.14 0.03 0.02 0.13 0.39 0.62 0.37 0.98 1.07 1.34 1.44 1.87 1.69 1.31 1.48 1.39 0.84 0.69 0.79 0.52 0.66 0.46 0.34 0.66 1.08 1.10 0.89 1.28 1.36 1.21 1.13 0.85 1.10 1.08 1.43 1.59 1.97 2.66 2.51 2.62
0.07 0.31 0.11 0.04 0.03 0.03 0.03 0.05 0.20 0.77 0.76 1.08 1.65 1.91 2.13 1.51 0.85 0.74 0.96 1.41 1.13 0.77 1.13 0.84 0.66 0.62 0.60 0.47 0.60 1.23 1.35 1.70 2.01 2.58 2.54 1.68 1.79 1.77 1.64 1.83 1.87 1.87 2.14 2.32
0.14 0.25 0.28 0.27 0.19 0.38 0.21 0.13 0.21 0.46 0.90 1.52 1.64 2.04 1.94 1.25 0.77 0.65 0.75 0.90 1.04 0.94 0.90 1.07 0.83 0.57 0.72 0.61 1.01 1.09 1.33 1.41 2.36 3.02 3.11 2.12 2.27 2.03 2.02 2.11 1.93 1.59 1.47 1.42
0.10 0.24 0.43 0.60 0.65 0.77 0.62 0.53 0.42 0.91 1.46 1.06 0.88 0.89 0.94 1.34 1.21 0.91 0.65 0.59 0.82 0.94 0.91 0.97 0.91 0.78 0.64 0.65 1.06 1.03 1.09 1.30 1.93 2.02 2.48 2.35 2.17 2.46 1.83 1.56 1.77 1.87 1.55 1.49
0.17 0.56 0.51 0.48 0.62 0.47 0.68 1.14 1.18 0.90 0.76 0.85 0.92 0.61 0.50 0.67 1.13 1.04 0.94 0.75 0.66 0.95 0.68 0.76 0.70 0.78 0.75 0.62 0.67 0.71 0.75 0.93 1.18 1.30 1.38 1.65 2.10 2.16 1.99 2.03 2.08 1.85 1.90 2.03
0.23 0.70 0.84 0.66 0.61 0.37 0.55 0.92 0.65 0.63 0.97 0.87 0.53 0.73 0.55 0.55 0.75 0.91 0.98 0.86 0.53 0.69 0.69 0.89 0.67 0.52 0.61 0.51 0.47 0.51 0.58 0.69 0.70 0.72 0.89 0.81 0.71 0.89 1.22 1.37 1.32 1.07 1.40 1.74
0.25 0.42 0.50 0.40 0.26 0.18 0.54 0.82 0.50 0.30 0.27 0.26 0.19 0.40 0.43 0.52 0.48 0.78 0.90 0.88 0.75 0.72 0.68 0.97 0.90 0.67 0.59 0.66 0.64 0.65 0.65 0.70 0.65 0.66 0.77 0.72 0.63 0.71 0.67 0.87 0.96 1.03 0.99 1.31
0.29 0.26 0.43 0.33 0.34 0.67 0.67 0.28 0.15 0.04 0.06 0.07 0.06 0.15 0.21 0.35 0.47 0.78 0.87 0.88 0.93 0.85 0.87 1.14 1.20 0.91 0.71 0.72 0.63 0.62 0.64 0.67 0.88 0.86 0.89 0.94 0.83 0.75 0.74 0.82 0.83 1.22 1.61 1.37
0.20 0.36 0.64 0.64 0.39 0.45 0.26 0.09 0.05 0.10 0.12 0.08 0.09 0.13 0.17 0.18 0.27 0.70 0.91 0.62 0.81 0.70 0.51 0.39 0.59 0.85 0.82 0.70 0.64 0.59 0.60 0.55 0.55 0.84 0.94 0.96 1.05 1.15 1.10 1.09 1.27 1.31 1.23 1.07
0.35 0.39 0.70 0.80 0.59 0.43 0.20 0.06 0.03 0.04 0.19 0.08 0.05 0.06 0.07 0.15 0.38 0.42 0.49 0.48 0.60 0.34 0.16 0.07 0.05 0.12 0.30 0.49 0.62 0.57 0.58 0.61 0.54 0.62 0.84 0.98 1.06 1.32 1.54 1.67 1.51 1.24 1.16 1.23
0.32 0.52 0.68 0.72 0.65 0.21 0.05 0.09 0.09 0.30 0.45 0.11 0.08 0.06 0.06 0.12 0.25 0.35 0.28 0.52 0.68 0.13 0.02 0.01 0.01 0.01 0.02 0.05 0.17 0.31 0.38 0.52 0.64 0.55 0.61 0.84 1.10 1.13 1.23 1.27 1.32 1.37 1.34 1.24
0.23 0.38 0.42 0.58 0.70 0.37 0.12 0.27 0.38 0.40 0.19 0.09 0.11 0.10 0.11 0.17 0.33 0.43 0.49 0.52 0.31 0.10 0.01 0.00 0.00 0.00 0.00 0.00 0.01 0.08 0.16 0.16 0.23 0.36 0.42 0.44 0.47 0.65 0.74 0.85 0.98 0.99 1.02 1.09
0.54 0.29 0.31 0.28 0.34 0.38 0.34 0.44 0.36 0.20 0.23 0.23 0.16 0.12 0.18 0.43 0.66 0.74 0.71 0.57 0.31 0.09 0.01 0.00 0.00 0.00 0.00 0.01 0.02 0.07 0.10 0.09 0.09 0.11 0.16 0.22 0.22 0.25 0.39 0.54 0.62 0.67 0.75 0.78
0.67 0.69 0.79 0.91 0.76 0.43 0.51 0.48 0.27 0.27 0.32 0.26 0.16 0.18 0.26 0.34 0.40 0.42 0.40 0.37 0.23 0.07 0.02 0.02 0.02 0.02 0.05 0.06 0.06 0.09 0.08 0.08 0.09 0.09 0.08 0.08 0.10 0.15 0.15 0.19 0.26 0.34 0.44 0.51
0.45 0.66 0.77 1.23 0.90 0.65 0.60 1.07 0.60 0.31 0.21 0.14 0.07 0.05 0.06 0.06 0.05 0.06 0.07 0.07 0.06 0.05 0.04 0.04 0.06 0.08 0.06 0.05 0.08 0.12 0.13 0.11 0.11 0.10 0.10 0.10 0.10 0.11 0.09 0.15 0.26 0.29 0.51 0.57
0.17 0.44 0.92 1.11 1.22 1.10 1.00 0.91 0.79 0.56 0.37 0.19 0.10 0.07 0.06 0.03 0.03 0.05 0.10 0.11 0.06 0.04 0.05 0.06 0.06 0.07 0.09 0.09 0.12 0.13 0.12 0.12 0.13 0.15 0.16 0.23 0.20 0.19 0.18 0.19 0.27 0.39 0.50 0.55

GFSCGP_prec_precacc_156.txt.gz
Total_Precipitation_Accumulation
0.01 0.00 0.01 0.00 0.00 0.01 0.01 0.01 0.03 0.01 0.00 0.00 0.00 0.01 0.02 0.03 0.04 0.04 0.02 0.01 0.01 0.00 0.01 0.05 0.08 0.11 0.12 0.20 0.56 0.70 0.86 0.73 0.54 0.42 0.41 0.38 0.41 0.33 0.38 0.37 0.55 0.72 1.14 1.32
0.04 0.04 0.01 0.00 0.01 0.03 0.05 0.09 0.04 0.01 0.01 0.06 0.04 0.01 0.00 0.01 0.17 0.03 0.01 0.01 0.00 0.00 0.00 0.01 0.02 0.08 0.22 0.43 0.48 0.41 0.33 0.20 0.20 0.17 0.28 0.34 0.37 0.30 0.25 0.32 0.43 1.00 1.07 1.14
0.07 0.03 0.00 0.01 0.02 0.02 0.02 0.02 0.00 0.01 0.05 0.17 0.11 0.03 0.00 0.00 0.02 0.05 0.03 0.03 0.01 0.01 0.04 0.06 0.09 0.12 0.12 0.10 0.06 0.09 0.15 0.10 0.21 0.23 0.23 0.28 0.41 0.48 0.41 0.38 0.42 0.73 0.79 0.89
0.04 0.00 0.01 0.04 0.04 0.04 0.06 0.02 0.01 0.02 0.17 0.20 0.18 0.15 0.02 0.01 0.00 0.08 0.02 0.04 0.04 0.05 0.05 0.03 0.01 0.01 0.01 0.05 0.08 0.12 0.13 0.19 0.21 0.33 0.14 0.26 0.20 0.22 0.22 0.26 0.28 0.51 0.64 0.71
0.06 0.01 0.02 0.03 0.02 0.02 0.02 0.01 0.04 0.09 0.12 0.17 0.12 0.28 0.05 0.07 0.14 0.23 0.18 0.17 0.10 0.08 0.07 0.06 0.03 0.05 0.06 0.05 0.08 0.09 0.13 0.25 0.27 0.26 0.20 0.35 0.30 0.22 0.19 0.27 0.36 0.47 0.62 0.57
0.02 0.02 0.07 0.05 0.01 0.02 0.06 0.06 0.20 0.22 0.17 0.24 0.03 0.18 0.11 0.17 0.45 0.45 0.49 0.26 0.14 0.13 0.18 0.16 0.14 0.14 0.12 0.11 0.23 0.12 0.13 0.13 0.29 0.35 0.39 0.48 0.63 0.47 0.29 0.23 0.25 0.34 0.54 0.49
0.07 0.08 0.02 0.01 0.05 0.03 0.06 0.16 0.37 0.52 0.43 0.16 0.09 0.15 0.17 0.27 0.31 0.61 0.77 0.46 0.19 0.20 0.17 0.16 0.21 0.32 0.29 0.28 0.35 0.18 0.10 0.16 0.23 0.41 0.55 0.60 1.09 1.25 1.16 0.74 0.44 0.53 0.61 0.48
0.16 0.24 0.05 0.01 0.02 0.03 0.06 0.15 0.32 0.70 0.53 0.27 0.19 0.24 0.42 0.38 0.52 0.45 0.31 0.64 0.26 0.25 0.24 0.28 0.61 0.43 0.38 0.50 0.57 0.39 0.22 0.28 0.31 0.46 0.72 0.74 0.80 1.07 1.78 1.93 1.96 1.57 1.10 0.86
0.36 0.43 0.03 0.02 0.03 0.03 0.03 0.08 0.11 0.53 0.52 0.72 0.61 0.68 0.77 0.32 0.58 0.92 0.73 0.45 0.41 0.26 0.31 0.46 0.55 0.32 0.31 1.01 1.23 0.70 0.52 0.36 0.37 0.45 0.62 0.65 0.92 1.28 1.58 2.05 2.33 3.07 2.91 2.17
0.39 0.86 0.07 0.06 0.07 0.04 0.03 0.09 0.44 0.86 1.13 0.81 0.43 0.79 1.29 1.24 1.34 1.43 1.20 0.83 0.67 0.45 0.39 0.45 0.73 0.31 0.32 1.25 1.06 0.69 0.73 0.83 0.69 0.47 0.49 0.61 0.74 0.95 1.36 1.64 2.56 2.80 3.21 3.52
0.25 0.88 0.19 0.04 0.14 0.03 0.02 0.13 0.39 0.62 0.37 0.98 1.07 1.34 1.44 1.87 1.69 1.31 1.48 1.39 0.84 0.69 0.79 0.52 0.66 0.46 0.34 0.66 1.08 1.10 0.89 1.28 1.36 1.21 1.13 0.85 1.10 1.08 1.43 1.59 1.97 2.66 2.51 2.62
0.07 0.31 0.11 0.04 0.03 0.03 0.03 0.05 0.20 0.77 0.76 1.08 1.65 1.91 2.13 1.51 0.85 0.74 0.96 1.41 1.13 0.77 1.13 0.84 0.66 0.62 0.60 0.47 0.60 1.23 1.35 1.70 2.01 2.58 2.54 1.68 1.79 1.77 1.64 1.83 1.87 1.87 2.14 2.32
0.14 0.25 0.28 0.27 0.19 0.38 0.21 0.13 0.21 0.46 0.90 1.52 1.64 2.04 1.94 1.25 0.77 0.65 0.75 0.90 1.04 0.94 0.90 1.07 0.83 0.57 0.72 0.61 1.01 1.09 1.33 1.41 2.36 3.02 3.11 2.12 2.27 2.03 2.02 2.11 1.93 1.59 1.47 1.42
0.10 0.24 0.43 0.60 0.65 0.77 0.63 0.53 0.42 0.91 1.46 1.06 0.88 0.89 0.94 1.34 1.21 0.91 0.65 0.59 0.82 0.94 0.91 0.97 0.91 0.78 0.64 0.65 1.06 1.03 1.09 1.30 1.93 2.02 2.48 2.35 2.17 2.46 1.83 1.56 1.77 1.87 1.55 1.49
0.17 0.57 0.51 0.48 0.62 0.47 0.68 1.14 1.18 0.90 0.76 0.85 0.92 0.61 0.50 0.67 1.13 1.04 0.94 0.75 0.66 0.95 0.68 0.76 0.70 0.78 0.75 0.62 0.67 0.71 0.75 0.93 1.18 1.30 1.38 1.65 2.10 2.16 1.99 2.03 2.08 1.85 1.90 2.03
0.23 0.70 0.84 0.66 0.61 0.37 0.55 0.92 0.65 0.63 0.97 0.87 0.53 0.73 0.55 0.55 0.75 0.91 0.98 0.86 0.53 0.69 0.69 0.89 0.67 0.52 0.61 0.51 0.47 0.51 0.58 0.69 0.70 0.72 0.89 0.81 0.71 0.89 1.22 1.37 1.32 1.07 1.40 1.74
0.26 0.42 0.50 0.40 0.26 0.19 0.55 0.82 0.50 0.30 0.27 0.26 0.19 0.40 0.43 0.52 0.48 0.78 0.90 0.88 0.75 0.72 0.68 0.97 0.90 0.67 0.59 0.66 0.64 0.65 0.65 0.70 0.65 0.66 0.77 0.72 0.63 0.71 0.67 0.87 0.96 1.03 0.99 1.31
0.29 0.26 0.43 0.33 0.34 0.67 0.67 0.28 0.15 0.04 0.06 0.07 0.06 0.15 0.21 0.35 0.47 0.78 0.87 0.88 0.93 0.85 0.87 1.14 1.20 0.91 0.71 0.72 0.63 0.62 0.64 0.67 0.88 0.86 0.89 0.94 0.83 0.75 0.74 0.82 0.83 1.22 1.61 1.37
0.20 0.36 0.64 0.64 0.39 0.45 0.26 0.09 0.05 0.10 0.12 0.08 0.09 0.13 0.17 0.18 0.27 0.70 0.91 0.62 0.81 0.70 0.51 0.39 0.59 0.85 0.82 0.70 0.64 0.59 0.60 0.55 0.55 0.84 0.94 0.96 1.05 1.15 1.10 1.09 1.27 1.31 1.23 1.07
0.35 0.39 0.70 0.80 0.59 0.43 0.20 0.06 0.03 0.04 0.19 0.08 0.05 0.06 0.07 0.15 0.38 0.42 0.49 0.48 0.60 0.34 0.16 0.07 0.05 0.12 0.30 0.49 0.62 0.57 0.58 0.61 0.54 0.62 0.84 0.98 1.06 1.32 1.54 1.67 1.51 1.24 1.16 1.23
0.32 0.52 0.69 0.72 0.65 0.21 0.05 0.09 0.09 0.30 0.45 0.11 0.08 0.06 0.06 0.12 0.25 0.35 0.28 0.52 0.68 0.13 0.02 0.01 0.01 0.01 0.02 0.05 0.17 0.31 0.38 0.52 0.64 0.55 0.61 0.84 1.10 1.13 1.23 1.27 1.32 1.37 1.34 1.24
0.23 0.38 0.42 0.58 0.70 0.37 0.12 0.27 0.38 0.40 0.19 0.09 0.11 0.10 0.11 0.17 0.33 0.43 0.49 0.52 0.31 0.10 0.01 0.00 0.00 0.00 0.00 0.00 0.01 0.08 0.16 0.16 0.23 0.36 0.42 0.44 0.47 0.65 0.74 0.85 0.98 0.99 1.02 1.09
0.54 0.29 0.31 0.28 0.34 0.38 0.34 0.44 0.36 0.20 0.23 0.23 0.16 0.12 0.18 0.43 0.66 0.74 0.71 0.57 0.31 0.09 0.01 0.00 0.00 0.00 0.00 0.01 0.02 0.07 0.10 0.09 0.09 0.11 0.16 0.22 0.22 0.25 0.39 0.54 0.62 0.67 0.75 0.78
0.67 0.69 0.80 0.92 0.76 0.43 0.51 0.48 0.28 0.28 0.33 0.26 0.16 0.18 0.26 0.34 0.40 0.42 0.40 0.37 0.23 0.07 0.02 0.02 0.02 0.02 0.05 0.06 0.06 0.09 0.08 0.08 0.09 0.09 0.08 0.08 0.10 0.15 0.15 0.19 0.26 0.34 0.44 0.51
0.45 0.66 0.78 1.23 0.90 0.66 0.60 1.07 0.60 0.31 0.22 0.14 0.07 0.05 0.06 0.06 0.05 0.06 0.07 0.07 0.06 0.05 0.04 0.04 0.06 0.08 0.06 0.05 0.08 0.12 0.13 0.11 0.11 0.10 0.10 0.10 0.10 0.11 0.09 0.15 0.26 0.29 0.51 0.57
0.17 0.44 0.92 1.11 1.22 1.10 1.00 0.91 0.80 0.57 0.37 0.19 0.10 0.07 0.06 0.03 0.03 0.05 0.10 0.11 0.06 0.04 0.05 0.06 0.06 0.07 0.09 0.09 0.12 0.13 0.12 0.12 0.13 0.15 0.16 0.23 0.20 0.19 0.18 0.19 0.27 0.39 0.50 0.55

GFSCGP_prec_precacc_159.txt.gz
Total_Precipitation_Accumulation
0.01 0.00 0.01 0.00 0.00 0.01 0.01 0.01 0.03 0.01 0.00 0.00 0.00 0.01 0.02 0.03 0.04 0.04 0.02 0.01 0.01 0.00 0.01 0.05 0.08 0.11 0.12 0.20 0.56 0.70 0.86 0.73 0.54 0.42 0.41 0.38 0.41 0.33 0.38 0.37 0.55 0.72 1.14 1.32
0.04 0.04 0.01 0.00 0.01 0.03 0.05 0.09 0.04 0.01 0.01 0.06 0.04 0.01 0.00 0.01 0.17 0.03 0.01 0.01 0.00 0.00 0.00 0.01 0.02 0.08 0.22 0.43 0.48 0.41 0.33 0.20 0.20 0.17 0.28 0.34 0.37 0.30 0.25 0.32 0.43 1.00 1.07 1.14
0.07 0.03 0.00 0.01 0.02 0.02 0.02 0.02 0.00 0.01 0.05 0.17 0.11 0.03 0.00 0.00 0.02 0.05 0.03 0.03 0.01 0.01 0.04 0.06 0.09 0.12 0.12 0.10 0.06 0.09 0.15 0.10 0.21 0.23 0.23 0.28 0.41 0.48 0.41 0.38 0.42 0.73 0.79 0.89
0.04 0.00 0.01 0.04 0.04 0.04 0.06 0.02 0.01 0.02 0.17 0.20 0.18 0.15 0.02 0.01 0.00 0.08 0.02 0.04 0.04 0.05 0.05 0.03 0.01 0.01 0.01 0.05 0.08 0.12 0.13 0.19 0.21 0.33 0.14 0.26 0.20 0.22 0.22 0.26 0.28 0.51 0.64 0.71
0.06 0.01 0.02 0.03 0.02 0.02 0.02 0.01 0.04 0.09 0.12 0.17 0.12 0.28 0.05 0.07 0.14 0.23 0.18 0.17 0.10 0.08 0.07 0.06 0.03 0.05 0.06 0.05 0.08 0.09 0.13 0.25 0.27 0.26 0.20 0.35 0.30 0.22 0.19 0.27 0.36 0.47 0.62 0.57
0.02 0.02 0.07 0.05 0.01 0.02 0.06 0.06 0.20 0.22 0.17 0.24 0.03 0.18 0.11 0.17 0.45 0.45 0.49 0.26 0.14 0.13 0.18 0.16 0.14 0.14 0.12 0.11 0.23 0.12 0.13 0.13 0.29 0.35 0.39 0.48 0.63 0.47 0.29 0.23 0.25 0.34 0.54 0.49
0.07 0.08 0.02 0.01 0.05 0.03 0.06 0.16 0.37 0.52 0.43 0.16 0.09 0.15 0.17 0.27 0.31 0.61 0.77 0.46 0.19 0.20 0.17 0.16 0.21 0.32 0.29 0.28 0.35 0.18 0.10 0.16 0.23 0.41 0.55 0.60 1.09 1.25 1.16 0.74 0.44 0.53 0.61 0.48
0.16 0.24 0.05 0.01 0.02 0.03 0.06 0.15 0.32 0.70 0.53 0.27 0.19 0.24 0.42 0.38 0.52 0.45 0.31 0.64 0.26 0.25 0.24 0.28 0.61 0.43 0.38 0.50 0.57 0.39 0.22 0.28 0.31 0.46 0.72 0.74 0.80 1.07 1.78 1.93 1.96 1.57 1.10 0.86
0.36 0.43 0.03 0.02 0.03 0.03 0.03 0.08 0.11 0.53 0.52 0.72 0.61 0.68 0.77 0.32 0.58 0.92 0.73 0.45 0.41 0.26 0.31 0.46 0.55 0.32 0.31 1.01 1.23 0.70 0.52 0.36 0.37 0.45 0.62 0.65 0.92 1.28 1.58 2.05 2.33 3.07 2.91 2.17
0.39 0.86 0.07 0.06 0.07 0.04 0.03 0.09 0.44 0.86 1.13 0.81 0.43 0.79 1.29 1.24 1.34 1.43 1.20 0.83 0.67 0.45 0.39 0.45 0.73 0.31 0.32 1.25 1.06 0.69 0.73 0.83 0.69 0.47 0.49 0.61 0.74 0.95 1.36 1.64 2.56 2.80 3.21 3.52
0.25 0.88 0.19 0.04 0.14 0.03 0.02 0.13 0.39 0.62 0.37 0.98 1.07 1.34 1.44 1.87 1.69 1.31 1.48 1.39 0.84 0.69 0.79 0.52 0.66 0.46 0.34 0.66 1.08 1.10 0.89 1.28 1.36 1.21 1.13 0.85 1.10 1.08 1.43 1.59 1.97 2.66 2.51 2.62
0.07 0.31 0.11 0.04 0.03 0.03 0.03 0.05 0.20 0.77 0.76 1.08 1.65 1.91 2.13 1.51 0.85 0.74 0.96 1.41 1.13 0.77 1.13 0.84 0.66 0.62 0.60 0.47 0.60 1.23 1.35 1.70 2.01 2.58 2.54 1.68 1.79 1.77 1.64 1.83 1.87 1.87 2.14 2.32
0.14 0.25 0.28 0.27 0.19 0.38 0.21 0.13 0.21 0.46 0.90 1.52 1.64 2.04 1.94 1.25 0.77 0.65 0.75 0.90 1.04 0.94 0.90 1.07 0.83 0.57 0.72 0.61 1.01 1.09 1.33 1.41 2.36 3.02 3.11 2.12 2.27 2.03 2.02 2.11 1.93 1.59 1.47 1.42
0.10 0.24 0.43 0.60 0.65 0.77 0.63 0.53 0.42 0.91 1.47 1.06 0.88 0.89 0.94 1.34 1.21 0.91 0.65 0.59 0.82 0.94 0.91 0.97 0.91 0.78 0.64 0.65 1.06 1.03 1.09 1.30 1.93 2.02 2.48 2.35 2.17 2.46 1.83 1.56 1.77 1.87 1.55 1.49
0.18 0.63 0.52 0.49 0.62 0.47 0.68 1.14 1.18 0.90 0.76 0.85 0.92 0.61 0.50 0.67 1.13 1.04 0.94 0.75 0.66 0.95 0.68 0.76 0.70 0.78 0.75 0.62 0.67 0.71 0.75 0.93 1.18 1.30 1.38 1.65 2.10 2.16 1.99 2.03 2.08 1.85 1.90 2.03
0.24 0.72 0.85 0.66 0.61 0.38 0.56 0.92 0.65 0.63 0.97 0.87 0.53 0.73 0.55 0.55 0.75 0.91 0.98 0.86 0.53 0.69 0.69 0.89 0.67 0.52 0.61 0.51 0.47 0.51 0.58 0.69 0.70 0.72 0.89 0.81 0.71 0.89 1.22 1.37 1.32 1.07 1.40 1.74
0.31 0.45 0.55 0.45 0.26 0.20 0.57 0.82 0.50 0.30 0.27 0.26 0.19 0.40 0.43 0.52 0.48 0.78 0.90 0.88 0.75 0.72 0.68 0.97 0.90 0.67 0.59 0.66 0.64 0.65 0.65 0.70 0.65 0.66 0.77 0.72 0.63 0.71 0.67 0.87 0.96 1.03 0.99 1.31
0.35 0.31 0.47 0.37 0.35 0.73 0.69 0.28 0.15 0.04 0.06 0.07 0.06 0.15 0.21 0.35 0.47 0.78 0.87 0.88 0.93 0.85 0.87 1.14 1.20 0.91 0.71 0.72 0.63 0.62 0.64 0.67 0.88 0.86 0.89 0.94 0.83 0.75 0.74 0.82 0.83 1.22 1.61 1.37
0.22 0.38 0.67 0.65 0.39 0.46 0.26 0.09 0.05 0.10 0.12 0.08 0.09 0.13 0.17 0.18 0.27 0.70 0.91 0.62 0.81 0.70 0.51 0.39 0.59 0.85 0.82 0.70 0.64 0.59 0.60 0.55 0.55 0.84 0.94 0.96 1.05 1.15 1.10 1.09 1.27 1.31 1.23 1.07
0.39 0.42 0.72 0.80 0.59 0.43 0.20 0.06 0.03 0.04 0.19 0.08 0.05 0.06 0.07 0.15 0.38 0.42 0.49 0.48 0.60 0.34 0.16 0.07 0.05 0.12 0.30 0.49 0.62 0.57 0.58 0.61 0.54 0.62 0.84 0.98 1.06 1.32 1.54 1.67 1.51 1.24 1.16 1.23
0.33 0.55 0.70 0.72 0.66 0.21 0.05 0.09 0.09 0.30 0.45 0.11 0.08 0.06 0.06 0.12 0.25 0.35 0.28 0.52 0.68 0.13 0.02 0.01 0.01 0.01 0.02 0.05 0.17 0.31 0.38 0.52 0.64 0.55 0.61 0.84 1.10 1.13 1.23 1.27 1.32 1.37 1.34 1.24
0.24 0.38 0.43 0.59 0.71 0.37 0.12 0.27 0.38 0.40 0.19 0.09 0.11 0.10 0.11 0.17 0.33 0.43 0.49 0.52 0.31 0.10 0.01 0.00 0.00 0.00 0.00 0.00 0.01 0.08 0.16 0.16 0.23 0.36 0.42 0.44 0.47 0.65 0.74 0.85 0.98 0.99 1.02 1.09
0.57 0.30 0.31 0.28 0.34 0.38 0.34 0.44 0.36 0.20 0.23 0.24 0.17 0.12 0.18 0.43 0.66 0.74 0.71 0.57 0.31 0.09 0.01 0.00 0.00 0.00 0.00 0.01 0.02 0.07 0.10 0.09 0.09 0.11 0.16 0.22 0.22 0.25 0.39 0.54 0.62 0.67 0.75 0.78
0.67 0.69 0.80 0.92 0.76 0.43 0.51 0.48 0.28 0.28 0.33 0.27 0.17 0.18 0.26 0.34 0.40 0.42 0.40 0.37 0.23 0.07 0.02 0.02 0.02 0.02 0.05 0.06 0.06 0.09 0.08 0.08 0.09 0.09 0.08 0.08 0.10 0.15 0.15 0.19 0.26 0.34 0.44 0.51
0.45 0.66 0.78 1.23 0.90 0.66 0.60 1.07 0.60 0.32 0.22 0.14 0.07 0.05 0.06 0.06 0.05 0.06 0.07 0.07 0.06 0.05 0.04 0.04 0.06 0.08 0.06 0.05 0.08 0.12 0.13 0.11 0.11 0.10 0.10 0.10 0.10 0.11 0.09 0.15 0.26 0.29 0.51 0.57
0.17 0.44 0.92 1.11 1.22 1.10 1.00 0.92 0.81 0.59 0.38 0.20 0.11 0.07 0.06 0.03 0.03 0.05 0.10 0.11 0.06 0.04 0.05 0.06 0.06 0.07 0.09 0.09 0.12 0.13 0.12 0.12 0.13 0.15 0.16 0.23 0.20 0.19 0.18 0.19 0.27 0.39 0.50 0.55

GFSCGP_prec_precacc_162.txt.gz
Total_Precipitation_Accumulation
0.01 0.00 0.01 0.00 0.00 0.01 0.01 0.01 0.03 0.01 0.00 0.00 0.00 0.01 0.02 0.03 0.04 0.04 0.02 0.01 0.01 0.00 0.01 0.05 0.08 0.11 0.12 0.20 0.56 0.70 0.86 0.73 0.54 0.42 0.41 0.38 0.41 0.33 0.38 0.37 0.55 0.72 1.14 1.32
0.04 0.04 0.01 0.00 0.01 0.03 0.05 0.09 0.04 0.01 0.01 0.06 0.04 0.01 0.00 0.01 0.17 0.03 0.01 0.01 0.00 0.00 0.00 0.01 0.02 0.08 0.22 0.43 0.48 0.41 0.33 0.20 0.20 0.17 0.28 0.34 0.37 0.30 0.25 0.32 0.43 1.00 1.07 1.14
0.07 0.03 0.00 0.01 0.02 0.02 0.02 0.02 0.00 0.01 0.05 0.17 0.11 0.03 0.00 0.00 0.02 0.05 0.03 0.03 0.01 0.01 0.04 0.06 0.09 0.12 0.12 0.10 0.06 0.09 0.15 0.10 0.21 0.23 0.23 0.28 0.41 0.48 0.41 0.38 0.42 0.73 0.79 0.89
0.04 0.00 0.01 0.04 0.04 0.04 0.06 0.02 0.01 0.02 0.17 0.20 0.18 0.15 0.02 0.01 0.00 0.08 0.02 0.04 0.04 0.05 0.05 0.03 0.01 0.01 0.01 0.05 0.08 0.12 0.13 0.19 0.21 0.33 0.14 0.26 0.20 0.22 0.22 0.26 0.28 0.51 0.64 0.71
0.06 0.01 0.02 0.03 0.02 0.02 0.02 0.01 0.04 0.09 0.12 0.17 0.12 0.28 0.05 0.07 0.14 0.23 0.18 0.17 0.10 0.08 0.07 0.06 0.03 0.05 0.06 0.05 0.08 0.09 0.13 0.25 0.27 0.26 0.20 0.35 0.30 0.22 0.19 0.27 0.36 0.47 0.62 0.57
0.02 0.02 0.07 0.05 0.01 0.02 0.06 0.06 0.20 0.22 0.17 0.24 0.03 0.18 0.11 0.17 0.45 0.45 0.49 0.26 0.14 0.13 0.18 0.16 0.14 0.14 0.12 0.11 0.23 0.12 0.13 0.13 0.29 0.35 0.39 0.48 0.63 0.47 0.29 0.23 0.25 0.34 0.54 0.49
0.07 0.08 0.02 0.01 0.05 0.03 0.06 0.16 0.37 0.52 0.43 0.16 0.09 0.15 0.17 0.27 0.31 0.61 0.77 0.46 0.19 0.20 0.17 0.16 0.21 0.32 0.29 0.28 0.35 0.18 0.10 0.16 0.23 0.41 0.55 0.60 1.09 1.25 1.16 0.74 0.44 0.53 0.61 0.48
0.16 0.24 0.05 0.01 0.02 0.03 0.06 0.15 0.32 0.70 0.53 0.27 0.19 0.24 0.42 0.38 0.52 0.45 0.31 0.64 0.26 0.25 0.24 0.28 0.61 0.43 0.38 0.50 0.57 0.39 0.22 0.28 0.31 0.46 0.72 0.74 0.80 1.07 1.78 1.93 1.96 1.57 1.10 0.86
0.36 0.43 0.03 0.02 0.03 0.03 0.03 0.08 0.11 0.53 0.52 0.72 0.61 0.68 0.77 0.32 0.58 0.92 0.73 0.45 0.41 0.26 0.31 0.46 0.55 0.32 0.31 1.01 1.23 0.70 0.52 0.36 0.37 0.45 0.62 0.65 0.92 1.28 1.58 2.05 2.33 3.07 2.91 2.17
0.39 0.86 0.07 0.06 0.07 0.04 0.03 0.09 0.44 0.86 1.13 0.81 0.43 0.79 1.29 1.24 1.34 1.43 1.20 0.83 0.67 0.45 0.39 0.45 0.73 0.31 0.32 1.25 1.06 0.69 0.73 0.83 0.69 0.47 0.49 0.61 0.74 0.95 1.36 1.64 2.56 2.80 3.21 3.52
0.25 0.88 0.19 0.04 0.14 0.03 0.02 0.13 0.39 0.62 0.37 0.98 1.07 1.34 1.44 1.87 1.69 1.31 1.48 1.39 0.84 0.69 0.79 0.52 0.66 0.46 0.34 0.66 1.08 1.10 0.89 1.28 1.36 1.21 1.13 0.85 1.10 1.08 1.43 1.59 1.97 2.66 2.51 2.62
0.07 0.31 0.11 0.04 0.03 0.03 0.03 0.05 0.20 0.77 0.76 1.08 1.65 1.91 2.13 1.51 0.85 0.74 0.96 1.41 1.13 0.77 1.13 0.84 0.66 0.62 0.60 0.47 0.60 1.23 1.35 1.70 2.01 2.58 2.54 1.68 1.79 1.77 1.64 1.83 1.87 1.87 2.14 2.32
0.15 0.26 0.28 0.27 0.19 0.38 0.21 0.13 0.21 0.46 0.90 1.52 1.64 2.04 1.94 1.25 0.77 0.65 0.75 0.90 1.04 0.94 0.90 1.07 0.83 0.57 0.72 0.61 1.01 1.09 1.33 1.41 2.36 3.02 3.11 2.12 2.27 2.03 2.02 2.11 1.93 1.59 1.47 1.42
0.13 0.33 0.47 0.61 0.65 0.77 0.63 0.53 0.42 0.92 1.47 1.06 0.88 0.89 0.94 1.34 1.21 0.91 0.65 0.59 0.82 0.94 0.91 0.97 0.91 0.78 0.64 0.65 1.06 1.03 1.09 1.30 1.93 2.02 2.48 2.35 2.17 2.46 1.83 1.56 1.77 1.87 1.55 1.49
0.23 0.80 0.57 0.53 0.63 0.47 0.68 1.14 1.18 0.90 0.76 0.86 0.92 0.61 0.50 0.67 1.14 1.05 0.94 0.75 0.66 0.95 0.68 0.76 0.70 0.78 0.75 0.62 0.67 0.71 0.75 0.93 1.18 1.30 1.38 1.65 2.10 2.16 1.99 2.03 2.08 1.85 1.90 2.03
0.24 0.74 0.86 0.69 0.62 0.40 0.60 0.94 0.65 0.63 0.97 0.87 0.53 0.73 0.55 0.55 0.75 0.91 0.98 0.86 0.53 0.69 0.69 0.89 0.67 0.52 0.61 0.51 0.47 0.51 0.58 0.69 0.70 0.72 0.89 0.81 0.71 0.89 1.22 1.37 1.32 1.07 1.40 1.74
0.35 0.48 0.58 0.48 0.27 0.22 0.64 0.85 0.50 0.30 0.27 0.26 0.19 0.40 0.43 0.52 0.48 0.78 0.90 0.88 0.75 0.72 0.68 0.97 0.90 0.67 0.59 0.66 0.64 0.65 0.65 0.70 0.65 0.66 0.77 0.72 0.63 0.71 0.67 0.87 0.96 1.03 0.99 1.31
0.45 0.44 0.66 0.55 0.49 0.94 0.72 0.28 0.15 0.04 0.06 0.07 0.06 0.15 0.21 0.35 0.47 0.78 0.87 0.88 0.93 0.85 0.87 1.14 1.20 0.91 0.71 0.72 0.63 0.62 0.64 0.67 0.88 0.86 0.89 0.94 0.83 0.75 0.74 0.82 0.83 1.22 1.61 1.37
0.24 0.44 0.79 0.77 0.47 0.49 0.27 0.09 0.05 0.10 0.12 0.08 0.09 0.13 0.17 0.18 0.27 0.70 0.91 0.62 0.81 0.70 0.51 0.39 0.59 0.85 0.82 0.70 0.64 0.59 0.60 0.55 0.55 0.84 0.94 0.96 1.05 1.15 1.10 1.09 1.27 1.31 1.23 1.07
0.41 0.46 0.82 0.92 0.63 0.44 0.20 0.06 0.03 0.04 0.19 0.08 0.05 0.06 0.07 0.15 0.38 0.42 0.49 0.48 0.60 0.34 0.16 0.07 0.05 0.12 0.30 0.49 0.62 0.57 0.58 0.61 0.54 0.62 0.84 0.98 1.06 1.32 1.54 1.67 1.51 1.24 1.16 1.23
0.36 0.69 0.91 0.84 0.70 0.22 0.05 0.09 0.09 0.30 0.45 0.11 0.08 0.06 0.06 0.12 0.25 0.35 0.28 0.52 0.68 0.13 0.02 0.01 0.01 0.01 0.02 0.05 0.17 0.31 0.38 0.52 0.64 0.55 0.61 0.84 1.10 1.13 1.23 1.27 1.32 1.37 1.34 1.24
0.24 0.39 0.48 0.71 0.80 0.39 0.12 0.27 0.38 0.40 0.19 0.09 0.11 0.10 0.11 0.17 0.33 0.43 0.49 0.52 0.31 0.10 0.01 0.00 0.00 0.00 0.00 0.00 0.01 0.08 0.16 0.16 0.23 0.36 0.42 0.44 0.47 0.65 0.74 0.85 0.98 0.99 1.02 1.09
0.58 0.31 0.31 0.29 0.35 0.38 0.34 0.44 0.36 0.20 0.23 0.24 0.17 0.12 0.18 0.43 0.66 0.74 0.71 0.57 0.31 0.09 0.01 0.00 0.00 0.00 0.00 0.01 0.02 0.07 0.10 0.09 0.09 0.11 0.16 0.22 0.22 0.25 0.39 0.54 0.62 0.67 0.75 0.78
0.67 0.69 0.81 0.93 0.77 0.43 0.51 0.48 0.28 0.28 0.33 0.27 0.17 0.18 0.26 0.34 0.40 0.42 0.40 0.37 0.23 0.07 0.02 0.02 0.02 0.02 0.05 0.06 0.06 0.09 0.08 0.08 0.09 0.09 0.08 0.08 0.10 0.15 0.15 0.19 0.26 0.34 0.44 0.51
0.45 0.66 0.78 1.24 0.90 0.66 0.60 1.07 0.60 0.32 0.22 0.14 0.07 0.05 0.06 0.06 0.05 0.06 0.07 0.07 0.06 0.05 0.04 0.04 0.06 0.08 0.06 0.05 0.08 0.12 0.13 0.11 0.11 0.10 0.10 0.10 0.10 0.11 0.09 0.15 0.26 0.29 0.51 0.57
0.17 0.44 0.92 1.11 1.22 1.10 1.00 0.92 0.81 0.59 0.39 0.21 0.12 0.08 0.07 0.03 0.04 0.05 0.10 0.11 0.06 0.04 0.05 0.06 0.06 0.07 0.09 0.09 0.12 0.13 0.12 0.12 0.13 0.15 0.16 0.23 0.20 0.19 0.18 0.19 0.27 0.39 0.50 0.55

GFSCGP_prec_precacc_165.txt.gz
Total_Precipitation_Accumulation
0.01 0.00 0.01 0.00 0.00 0.01 0.01 0.01 0.03 0.01 0.00 0.00 0.00 0.01 0.02 0.03 0.04 0.04 0.02 0.01 0.01 0.00 0.01 0.05 0.08 0.11 0.12 0.20 0.56 0.70 0.86 0.73 0.54 0.42 0.41 0.38 0.41 0.33 0.38 0.37 0.55 0.72 1.14 1.32
0.04 0.04 0.01 0.00 0.01 0.03 0.05 0.09 0.04 0.01 0.01 0.06 0.04 0.01 0.00 0.01 0.17 0.03 0.01 0.01 0.00 0.00 0.00 0.01 0.02 0.08 0.22 0.43 0.48 0.41 0.33 0.20 0.20 0.17 0.28 0.34 0.37 0.30 0.25 0.32 0.43 1.00 1.07 1.14
0.07 0.03 0.00 0.01 0.02 0.02 0.02 0.02 0.00 0.01 0.05 0.17 0.11 0.03 0.00 0.00 0.02 0.05 0.03 0.03 0.01 0.01 0.04 0.06 0.09 0.12 0.12 0.10 0.06 0.09 0.15 0.10 0.21 0.23 0.23 0.28 0.41 0.48 0.41 0.38 0.42 0.73 0.79 0.89
0.04 0.00 0.01 0.04 0.04 0.04 0.06 0.02 0.01 0.02 0.17 0.20 0.18 0.15 0.02 0.01 0.00 0.08 0.02 0.04 0.04 0.05 0.05 0.03 0.01 0.01 0.01 0.05 0.08 0.12 0.13 0.19 0.21 0.33 0.14 0.26 0.20 0.22 0.22 0.26 0.28 0.51 0.64 0.71
0.06 0.01 0.02 0.03 0.02 0.02 0.02 0.01 0.04 0.09 0.12 0.17 0.12 0.28 0.05 0.07 0.14 0.23 0.18 0.17 0.10 0.08 0.07 0.06 0.03 0.05 0.06 0.05 0.08 0.09 0.13 0.25 0.27 0.26 0.20 0.35 0.30 0.22 0.19 0.27 0.36 0.47 0.62 0.57
0.02 0.02 0.07 0.05 0.01 0.02 0.06 0.06 0.20 0.22 0.17 0.24 0.03 0.18 0.11 0.17 0.45 0.45 0.49 0.26 0.14 0.13 0.18 0.16 0.14 0.14 0.12 0.11 0.23 0.12 0.13 0.13 0.29 0.35 0.39 0.48 0.63 0.47 0.29 0.23 0.25 0.34 0.54 0.49
0.07 0.08 0.02 0.01 0.05 0.03 0.06 0.16 0.37 0.52 0.43 0.16 0.09 0.15 0.17 0.27 0.31 0.61 0.77 0.46 0.19 0.20 0.17 0.16 0.21 0.32 0.29 0.28 0.35 0.18 0.10 0.16 0.23 0.41 0.55 0.60 1.09 1.25 1.16 0.74 0.44 0.53 0.61 0.48
0.16 0.24 0.05 0.01 0.02 0.03 0.06 0.15 0.32 0.70 0.53 0.27 0.19 0.24 0.42 0.38 0.52 0.45 0.31 0.64 0.26 0.25 0.24 0.28 0.61 0.43 0.38 0.50 0.57 0.39 0.22 0.28 0.31 0.46 0.72 0.74 0.80 1.07 1.78 1.93 1.96 1.57 1.10 0.86
0.36 0.43 0.03 0.02 0.03 0.03 0.03 0.08 0.11 0.54 0.53 0.74 0.61 0.68 0.77 0.32 0.58 0.92 0.73 0.45 0.41 0.26 0.31 0.46 0.55 0.32 0.31 1.01 1.23 0.70 0.52 0.36 0.37 0.45 0.62 0.65 0.92 1.28 1.58 2.05 2.33 3.07 2.91 2.17
0.39 0.86 0.07 0.06 0.07 0.04 0.03 0.09 0.44 0.87 1.13 0.82 0.43 0.79 1.29 1.24 1.34 1.43 1.20 0.83 0.67 0.45 0.39 0.45 0.73 0.31 0.32 1.25 1.06 0.69 0.73 0.83 0.69 0.47 0.49 0.61 0.74 0.95 1.36 1.64 2.56 2.80 3.21 3.52
0.25 0.88 0.19 0.04 0.14 0.03 0.02 0.13 0.39 0.62 0.37 0.98 1.07 1.34 1.44 1.87 1.69 1.31 1.48 1.39 0.84 0.69 0.79 0.52 0.66 0.46 0.34 0.66 1.08 1.10 0.89 1.28 1.36 1.21 1.13 0.85 1.10 1.08 1.43 1.59 1.97 2.66 2.51 2.62
0.08 0.33 0.11 0.04 0.03 0.03 0.03 0.05 0.20 0.77 0.76 1.08 1.65 1.91 2.13 1.51 0.85 0.74 0.96 1.41 1.13 0.77 1.13 0.84 0.66 0.62 0.60 0.47 0.60 1.23 1.35 1.70 2.01 2.58 2.54 1.68 1.79 1.77 1.64 1.83 1.87 1.87 2.14 2.32
0.17 0.37 0.33 0.27 0.19 0.38 0.21 0.13 0.21 0.46 0.90 1.53 1.65 2.04 1.94 1.25 0.77 0.65 0.75 0.90 1.04 0.94 0.90 1.07 0.83 0.57 0.72 0.61 1.01 1.09 1.33 1.41 2.36 3.02 3.11 2.12 2.27 2.03 2.02 2.11 1.93 1.59 1.47 1.42
0.22 0.48 0.54 0.64 0.65 0.77 0.63 0.53 0.42 0.92 1.49 1.07 0.88 0.89 0.94 1.34 1.21 0.91 0.65 0.59 0.82 0.94 0.91 0.97 0.91 0.78 0.64 0.65 1.06 1.03 1.09 1.30 1.93 2.02 2.48 2.35 2.17 2.46 1.83 1.56 1.77 1.87 1.55 1.49
0.29 0.94 0.63 0.58 0.65 0.47 0.69 1.14 1.18 0.90 0.77 0.86 0.93 0.61 0.50 0.67 1.14 1.05 0.95 0.75 0.66 0.95 0.68 0.76 0.70 0.78 0.75 0.62 0.67 0.71 0.75 0.93 1.18 1.30 1.38 1.65 2.10 2.16 1.99 2.03 2.08 1.85 1.90 2.03
0.28 0.83 0.90 0.71 0.62 0.41 0.61 0.94 0.65 0.63 0.97 0.87 0.53 0.73 0.55 0.55 0.75 0.91 0.98 0.86 0.53 0.69 0.69 0.89 0.67 0.52 0.61 0.51 0.47 0.51 0.58 0.69 0.70 0.72 0.89 0.81 0.71 0.89 1.22 1.37 1.32 1.07 1.40 1.74
0.37 0.54 0.63 0.52 0.27 0.23 0.70 0.87 0.50 0.30 0.28 0.26 0.19 0.40 0.43 0.52 0.48 0.78 0.90 0.88 0.75 0.72 0.68 0.97 0.90 0.67 0.59 0.66 0.64 0.65 0.65 0.70 0.65 0.66 0.77 0.72 0.63 0.71 0.67 0.87 0.96 1.03 0.99 1.31
0.46 0.44 0.71 0.61 0.52 1.03 0.73 0.28 0.15 0.04 0.06 0.07 0.06 0.15 0.21 0.35 0.47 0.78 0.87 0.88 0.93 0.85 0.87 1.14 1.20 0.91 0.71 0.72 0.63 0.62 0.64 0.67 0.88 0.86 0.89 0.94 0.83 0.75 0.74 0.82 0.83 1.22 1.61 1.37
0.24 0.45 0.84 0.85 0.53 0.52 0.27 0.09 0.05 0.10 0.12 0.08 0.09 0.13 0.17 0.18 0.27 0.70 0.91 0.62 0.81 0.70 0.51 0.39 0.59 0.85 0.82 0.70 0.64 0.59 0.60 0.55 0.55 0.84 0.94 0.96 1.05 1.15 1.10 1.09 1.27 1.31 1.23 1.07
0.41 0.47 0.90 1.00 0.70 0.46 0.20 0.06 0.03 0.04 0.19 0.08 0.05 0.06 0.07 0.15 0.38 0.42 0.49 0.48 0.60 0.34 0.16 0.07 0.05 0.12 0.30 0.49 0.62 0.57 0.58 0.61 0.54 0.62 0.84 0.98 1.06 1.32 1.54 1.67 1.51 1.24 1.16 1.23
0.36 0.71 0.97 0.89 0.80 0.24 0.05 0.09 0.09 0.30 0.45 0.11 0.08 0.06 0.06 0.12 0.25 0.35 0.28 0.52 0.68 0.13 0.02 0.01 0.01 0.01 0.02 0.05 0.17 0.31 0.38 0.52 0.64 0.55 0.61 0.84 1.10 1.13 1.23 1.27 1.32 1.37 1.34 1.24
0.24 0.41 0.50 0.77 0.91 0.44 0.13 0.28 0.39 0.41 0.19 0.09 0.11 0.10 0.11 0.17 0.33 0.43 0.49 0.52 0.31 0.10 0.01 0.00 0.00 0.00 0.00 0.00 0.01 0.08 0.16 0.16 0.23 0.36 0.42 0.44 0.47 0.65 0.74 0.85 0.98 0.99 1.02 1.09
0.58 0.31 0.32 0.30 0.37 0.39 0.34 0.45 0.36 0.20 0.23 0.24 0.17 0.12 0.18 0.43 0.66 0.74 0.71 0.57 0.31 0.09 0.01 0.00 0.00 0.00 0.00 0.01 0.02 0.07 0.10 0.09 0.09 0.11 0.16 0.22 0.22 0.25 0.39 0.54 0.62 0.67 0.75 0.78
0.67 0.69 0.81 0.93 0.77 0.44 0.53 0.49 0.28 0.28 0.33 0.27 0.17 0.18 0.26 0.34 0.40 0.42 0.40 0.37 0.23 0.07 0.02 0.02 0.02 0.02 0.05 0.06 0.06 0.09 0.08 0.08 0.09 0.09 0.08 0.08 0.10 0.15 0.15 0.19 0.26 0.34 0.44 0.51
0.45 0.66 0.78 1.24 0.91 0.66 0.61 1.07 0.60 0.32 0.22 0.14 0.07 0.05 0.06 0.06 0.06 0.06 0.07 0.07 0.06 0.05 0.04 0.04 0.06 0.08 0.06 0.05 0.08 0.12 0.13 0.11 0.11 0.10 0.10 0.10 0.10 0.11 0.09 0.15 0.26 0.29 0.51 0.57
0.17 0.44 0.92 1.11 1.22 1.10 1.00 0.92 0.81 0.59 0.39 0.22 0.14 0.10 0.08 0.04 0.05 0.07 0.11 0.11 0.06 0.04 0.05 0.06 0.06 0.07 0.09 0.09 0.12 0.13 0.12 0.12 0.13 0.15 0.16 0.23 0.20 0.19 0.18 0.19 0.27 0.39 0.50 0.55

GFSCGP_prec_precacc_168.txt.gz
Total_Precipitation_Accumulation
0.01 0.00 0.01 0.00 0.00 0.01 0.01 0.01 0.03 0.01 0.00 0.00 0.00 0.01 0.02 0.03 0.04 0.04 0.02 0.01 0.01 0.00 0.01 0.05 0.08 0.11 0.12 0.20 0.56 0.70 0.86 0.73 0.54 0.42 0.41 0.38 0.41 0.33 0.38 0.37 0.55 0.72 1.14 1.32
0.04 0.04 0.01 0.00 0.01 0.03 0.05 0.09 0.04 0.01 0.01 0.06 0.04 0.01 0.00 0.01 0.17 0.03 0.01 0.01 0.00 0.00 0.00 0.01 0.02 0.08 0.22 0.43 0.48 0.41 0.33 0.20 0.20 0.17 0.28 0.34 0.37 0.30 0.25 0.32 0.43 1.00 1.07 1.14
0.07 0.03 0.00 0.01 0.02 0.02 0.02 0.02 0.00 0.01 0.05 0.17 0.11 0.03 0.00 0.00 0.02 0.05 0.03 0.03 0.01 0.01 0.04 0.06 0.09 0.12 0.12 0.10 0.06 0.09 0.15 0.10 0.21 0.23 0.23 0.28 0.41 0.48 0.41 0.38 0.42 0.73 0.79 0.89
0.04 0.00 0.01 0.04 0.04 0.04 0.06 0.02 0.01 0.02 0.17 0.20 0.18 0.15 0.02 0.01 0.00 0.08 0.02 0.04 0.04 0.05 0.05 0.03 0.01 0.01 0.01 0.05 0.08 0.12 0.13 0.19 0.21 0.33 0.14 0.26 0.20 0.22 0.22 0.26 0.28 0.51 0.64 0.71
0.06 0.01 0.02 0.03 0.02 0.02 0.02 0.01 0.04 0.09 0.12 0.17 0.12 0.28 0.05 0.07 0.14 0.23 0.18 0.17 0.10 0.08 0.07 0.06 0.03 0.05 0.06 0.05 0.08 0.09 0.13 0.25 0.27 0.26 0.20 0.35 0.30 0.22 0.19 0.27 0.36 0.47 0.62 0.57
0.02 0.02 0.07 0.05 0.01 0.02 0.06 0.06 0.20 0.22 0.17 0.24 0.03 0.18 0.11 0.17 0.45 0.45 0.49 0.26 0.14 0.13 0.18 0.16 0.14 0.14 0.12 0.11 0.23 0.12 0.13 0.13 0.29 0.35 0.39 0.48 0.63 0.47 0.29 0.23 0.25 0.34 0.54 0.49
0.07 0.08 0.02 0.01 0.05 0.03 0.06 0.16 0.37 0.52 0.43 0.16 0.09 0.15 0.17 0.27 0.31 0.61 0.77 0.46 0.19 0.20 0.17 0.16 0.21 0.32 0.29 0.28 0.35 0.18 0.10 0.16 0.23 0.41 0.55 0.60 1.09 1.25 1.16 0.74 0.44 0.53 0.61 0.48
0.16 0.24 0.05 0.01 0.02 0.03 0.06 0.15 0.32 0.70 0.53 0.27 0.19 0.24 0.42 0.38 0.52 0.45 0.31 0.64 0.26 0.25 0.24 0.28 0.61 0.43 0.38 0.50 0.57 0.39 0.22 0.28 0.31 0.46 0.72 0.74 0.80 1.07 1.78 1.93 1.96 1.57 1.10 0.86
0.36 0.43 0.03 0.02 0.03 0.03 0.03 0.08 0.11 0.54 0.53 0.76 0.61 0.68 0.77 0.32 0.58 0.92 0.73 0.45 0.41 0.26 0.31 0.46 0.55 0.32 0.31 1.01 1.23 0.70 0.52 0.36 0.37 0.45 0.62 0.65 0.92 1.28 1.58 2.05 2.33 3.07 2.91 2.17
0.39 0.86 0.07 0.06 0.07 0.04 0.03 0.09 0.44 0.88 1.15 0.84 0.43 0.79 1.29 1.24 1.34 1.43 1.20 0.83 0.67 0.45 0.39 0.45 0.73 0.31 0.32 1.25 1.06 0.69 0.73 0.83 0.69 0.47 0.49 0.61 0.74 0.95 1.36 1.64 2.56 2.80 3.21 3.52
0.25 0.88 0.19 0.04 0.14 0.03 0.02 0.13 0.39 0.62 0.38 0.98 1.07 1.34 1.44 1.87 1.69 1.31 1.48 1.39 0.84 0.69 0.79 0.52 0.66 0.46 0.34 0.66 1.08 1.10 0.89 1.28 1.36 1.21 1.13 0.85 1.10 1.08 1.43 1.59 1.97 2.66 2.51 2.62
0.08 0.35 0.11 0.04 0.03 0.03 0.03 0.05 0.20 0.78 0.77 1.08 1.66 1.92 2.13 1.51 0.85 0.74 0.96 1.41 1.13 0.77 1.13 0.84 0.66 0.62 0.60 0.47 0.60 1.23 1.35 1.70 2.01 2.58 2.54 1.68 1.79 1.77 1.64 1.83 1.87 1.87 2.14 2.32
0.19 0.41 0.36 0.28 0.19 0.38 0.21 0.13 0.21 0.46 0.90 1.53 1.68 2.06 1.94 1.25 0.77 0.65 0.75 0.90 1.04 0.94 0.90 1.07 0.83 0.57 0.72 0.61 1.01 1.09 1.33 1.41 2.36 3.02 3.11 2.12 2.27 2.03 2.02 2.11 1.93 1.59 1.47 1.42
0.26 0.57 0.59 0.66 0.66 0.78 0.64 0.53 0.43 0.93 1.53 1.07 0.88 0.89 0.94 1.34 1.21 0.91 0.65 0.59 0.82 0.94 0.91 0.97 0.91 0.78 0.64 0.65 1.06 1.03 1.09 1.30 1.93 2.02 2.48 2.35 2.17 2.46 1.83 1.56 1.77 1.87 1.55 1.49
0.31 0.98 0.64 0.59 0.66 0.48 0.72 1.16 1.18 0.90 0.78 0.90 0.94 0.61 0.50 0.67 1.14 1.05 0.95 0.75 0.66 0.95 0.68 0.76 0.70 0.78 0.75 0.62 0.67 0.71 0.75 0.93 1.18 1.30 1.38 1.65 2.10 2.16 1.99 2.03 2.08 1.85 1.90 2.03
0.31 0.87 0.92 0.73 0.63 0.41 0.63 0.94 0.65 0.63 0.97 0.87 0.53 0.73 0.55 0.55 0.75 0.91 0.98 0.86 0.53 0.69 0.69 0.89 0.67 0.52 0.61 0.51 0.47 0.51 0.58 0.69 0.70 0.72 0.89 0.81 0.71 0.89 1.22 1.37 1.32 1.07 1.40 1.74
0.38 0.57 0.67 0.56 0.27 0.25 0.74 0.87 0.50 0.30 0.28 0.26 0.19 0.40 0.43 0.52 0.48 0.78 0.90 0.88 0.75 0.72 0.68 0.97 0.90 0.67 0.59 0.66 0.64 0.65 0.65 0.70 0.65 0.66 0.77 0.72 0.63 0.71 0.67 0.87 0.96 1.03 0.99 1.31
0.46 0.45 0.76 0.64 0.53 1.10 0.74 0.28 0.15 0.04 0.06 0.07 0.06 0.15 0.21 0.35 0.47 0.78 0.87 0.88 0.93 0.85 0.87 1.14 1.20 0.91 0.71 0.72 0.63 0.62 0.64 0.67 0.88 0.86 0.89 0.94 0.83 0.75 0.74 0.82 0.83 1.22 1.61 1.37
0.24 0.47 0.87 0.87 0.54 0.54 0.27 0.09 0.05 0.10 0.12 0.08 0.09 0.13 0.17 0.18 0.27 0.70 0.91 0.62 0.81 0.70 0.51 0.39 0.59 0.85 0.82 0.70 0.64 0.59 0.60 0.55 0.55 0.84 0.94 0.96 1.05 1.15 1.10 1.09 1.27 1.31 1.23 1.07
0.42 0.50 0.99 1.06 0.77 0.49 0.20 0.06 0.03 0.04 0.19 0.08 0.05 0.06 0.07 0.15 0.38 0.42 0.49 0.48 0.60 0.34 0.16 0.07 0.05 0.12 0.30 0.49 0.62 0.57 0.58 0.61 0.54 0.62 0.84 0.98 1.06 1.32 1.54 1.67 1.51 1.24 1.16 1.23
0.39 0.76 1.08 1.01 0.94 0.30 0.05 0.09 0.09 0.31 0.45 0.11 0.08 0.06 0.06 0.12 0.25 0.35 0.28 0.52 0.68 0.13 0.02 0.01 0.01 0.01 0.02 0.05 0.17 0.31 0.38 0.52 0.64 0.55 0.61 0.84 1.10 1.13 1.23 1.27 1.33 1.37 1.34 1.24
0.25 0.45 0.53 0.81 0.97 0.47 0.13 0.28 0.40 0.41 0.19 0.09 0.11 0.10 0.11 0.17 0.33 0.43 0.49 0.52 0.31 0.10 0.01 0.00 0.00 0.00 0.00 0.00 0.01 0.08 0.16 0.16 0.23 0.36 0.42 0.44 0.47 0.65 0.74 0.85 0.98 0.99 1.02 1.09
0.59 0.32 0.35 0.33 0.42 0.41 0.34 0.45 0.37 0.20 0.24 0.24 0.17 0.12 0.18 0.43 0.66 0.74 0.71 0.57 0.31 0.09 0.01 0.00 0.00 0.00 0.00 0.01 0.02 0.07 0.10 0.09 0.09 0.11 0.16 0.22 0.22 0.25 0.39 0.54 0.62 0.67 0.75 0.78
0.67 0.70 0.83 0.94 0.77 0.45 0.54 0.51 0.30 0.29 0.33 0.27 0.17 0.18 0.26 0.34 0.40 0.42 0.40 0.37 0.23 0.07 0.02 0.02 0.02 0.02 0.05 0.06 0.06 0.09 0.08 0.08 0.09 0.09 0.08 0.08 0.10 0.15 0.15 0.19 0.26 0.34 0.44 0.51
0.46 0.66 0.78 1.24 0.91 0.67 0.61 1.09 0.62 0.32 0.22 0.14 0.07 0.05 0.06 0.06 0.06 0.06 0.07 0.07 0.06 0.05 0.04 0.04 0.06 0.08 0.06 0.05 0.08 0.12 0.13 0.11 0.11 0.10 0.10 0.10 0.10 0.11 0.09 0.15 0.26 0.29 0.51 0.57
0.17 0.44 0.92 1.11 1.22 1.11 1.01 0.92 0.81 0.59 0.39 0.22 0.14 0.11 0.10 0.06 0.07 0.07 0.11 0.11 0.06 0.04 0.05 0.06 0.06 0.07 0.09 0.09 0.12 0.13 0.12 0.12 0.13 0.15 0.16 0.23 0.20 0.19 0.18 0.19 0.27 0.39 0.50 0.55

GFSCGP_prec_precacc_171.txt.gz
Total_Precipitation_Accumulation
0.01 0.00 0.01 0.00 0.00 0.01 0.01 0.01 0.03 0.01 0.00 0.00 0.00 0.01 0.02 0.03 0.04 0.04 0.02 0.01 0.01 0.00 0.01 0.05 0.08 0.11 0.12 0.20 0.56 0.70 0.86 0.73 0.54 0.42 0.41 0.38 0.41 0.33 0.38 0.37 0.55 0.72 1.14 1.32
0.04 0.04 0.01 0.00 0.01 0.03 0.05 0.09 0.04 0.01 0.01 0.06 0.04 0.01 0.00 0.01 0.17 0.03 0.01 0.01 0.00 0.00 0.00 0.01 0.02 0.08 0.22 0.43 0.48 0.41 0.33 0.20 0.20 0.17 0.28 0.34 0.37 0.30 0.25 0.32 0.43 1.00 1.07 1.14
0.07 0.03 0.00 0.01 0.02 0.02 0.02 0.02 0.00 0.01 0.05 0.17 0.11 0.03 0.00 0.00 0.02 0.05 0.03 0.03 0.01 0.01 0.04 0.06 0.09 0.12 0.12 0.10 0.06 0.09 0.15 0.10 0.21 0.23 0.23 0.28 0.41 0.48 0.41 0.38 0.42 0.73 0.79 0.89
0.04 0.00 0.01 0.04 0.04 0.04 0.06 0.02 0.01 0.02 0.17 0.20 0.18 0.15 0.02 0.01 0.00 0.08 0.02 0.04 0.04 0.05 0.05 0.03 0.01 0.01 0.01 0.05 0.08 0.12 0.13 0.19 0.21 0.33 0.14 0.26 0.20 0.22 0.22 0.26 0.28 0.51 0.64 0.71
0.06 0.01 0.02 0.03 0.02 0.02 0.02 0.01 0.04 0.09 0.12 0.17 0.12 0.28 0.05 0.07 0.14 0.23 0.18 0.17 0.10 0.08 0.07 0.06 0.03 0.05 0.06 0.05 0.08 0.09 0.13 0.25 0.27 0.26 0.20 0.35 0.30 0.22 0.19 0.27 0.36 0.47 0.62 0.57
0.02 0.02 0.07 0.05 0.01 0.02 0.06 0.06 0.20 0.22 0.17 0.24 0.03 0.18 0.11 0.17 0.45 0.45 0.49 0.26 0.14 0.13 0.18 0.16 0.14 0.14 0.12 0.11 0.23 0.12 0.13 0.13 0.29 0.35 0.39 0.48 0.63 0.47 0.29 0.23 0.25 0.34 0.54 0.49
0.07 0.08 0.02 0.01 0.05 0.03 0.06 0.16 0.37 0.52 0.43 0.16 0.09 0.15 0.17 0.27 0.31 0.61 0.77 0.46 0.19 0.20 0.17 0.16 0.21 0.32 0.29 0.28 0.35 0.18 0.10 0.16 0.23 0.41 0.55 0.60 1.09 1.25 1.16 0.74 0.44 0.53 0.61 0.48
0.16 0.24 0.05 0.01 0.02 0.03 0.06 0.15 0.32 0.70 0.53 0.27 0.19 0.24 0.42 0.38 0.52 0.45 0.31 0.64 0.26 0.25 0.24 0.28 0.61 0.43 0.38 0.50 0.57 0.39 0.22 0.28 0.31 0.46 0.72 0.74 0.80 1.07 1.78 1.93 1.96 1.57 1.10 0.86
0.36 0.43 0.03 0.02 0.03 0.03 0.03 0.08 0.11 0.55 0.53 0.76 0.61 0.68 0.77 0.32 0.58 0.92 0.73 0.45 0.41 0.26 0.31 0.46 0.55 0.32 0.31 1.01 1.23 0.70 0.52 0.36 0.37 0.45 0.62 0.65 0.92 1.28 1.58 2.05 2.33 3.07 2.91 2.17
0.39 0.86 0.07 0.06 0.07 0.04 0.03 0.09 0.45 0.94 1.24 0.86 0.43 0.79 1.29 1.24 1.34 1.43 1.20 0.83 0.67 0.45 0.39 0.45 0.73 0.31 0.32 1.25 1.06 0.69 0.73 0.83 0.69 0.47 0.49 0.61 0.74 0.95 1.36 1.64 2.56 2.80 3.21 3.52
0.25 0.88 0.19 0.04 0.14 0.03 0.02 0.13 0.39 0.63 0.40 1.01 1.09 1.35 1.44 1.87 1.69 1.31 1.48 1.39 0.84 0.69 0.79 0.52 0.66 0.46 0.34 0.66 1.08 1.10 0.89 1.28 1.36 1.21 1.13 0.85 1.10 1.08 1.43 1.59 1.97 2.66 2.51 2.62
0.08 0.35 0.11 0.04 0.03 0.03 0.03 0.05 0.20 0.80 0.80 1.10 1.69 1.94 2.13 1.51 0.85 0.74 0.96 1.41 1.13 0.77 1.13 0.84 0.66 0.62 0.60 0.47 0.60 1.23 1.35 1.70 2.01 2.58 2.54 1.68 1.79 1.77 1.64 1.83 1.87 1.87 2.14 2.32
0.21 0.43 0.37 0.28 0.19 0.39 0.21 0.13 0.21 0.47 0.92 1.56 1.73 2.09 1.94 1.25 0.77 0.65 0.75 0.90 1.04 0.94 0.90 1.07 0.83 0.57 0.72 0.61 1.01 1.09 1.33 1.41 2.36 3.02 3.11 2.12 2.27 2.03 2.02 2.11 1.93 1.59 1.47 1.42
0.28 0.61 0.60 0.67 0.67 0.83 0.69 0.54 0.43 0.97 1.61 1.10 0.90 0.90 0.94 1.34 1.21 0.91 0.65 0.59 0.82 0.94 0.91 0.97 0.91 0.78 0.64 0.65 1.06 1.03 1.09 1.30 1.93 2.02 2.48 2.35 2.17 2.46 1.83 1.56 1.77 1.87 1.55 1.49
0.35 1.05 0.65 0.60 0.66 0.48 0.72 1.16 1.18 0.91 0.80 0.95 0.96 0.62 0.50 0.67 1.14 1.05 0.95 0.75 0.66 0.95 0.68 0.76 0.70 0.78 0.75 0.62 0.67 0.71 0.75 0.93 1.18 1.30 1.38 1.65 2.10 2.16 1.99 2.03 2.08 1.85 1.90 2.04
0.31 0.88 0.93 0.73 0.63 0.41 0.63 0.95 0.65 0.63 0.97 0.87 0.53 0.74 0.55 0.55 0.75 0.91 0.98 0.86 0.53 0.69 0.69 0.89 0.67 0.52 0.61 0.51 0.47 0.51 0.58 0.69 0.70 0.72 0.89 0.81 0.71 0.89 1.22 1.37 1.32 1.07 1.40 1.74
0.42 0.61 0.70 0.58 0.27 0.26 0.78 0.87 0.50 0.30 0.28 0.26 0.20 0.41 0.43 0.52 0.48 0.78 0.90 0.88 0.75 0.72 0.68 0.97 0.90 0.67 0.59 0.66 0.64 0.65 0.65 0.70 0.65 0.66 0.77 0.72 0.63 0.71 0.67 0.87 0.96 1.03 0.99 1.31
0.48 0.47 0.78 0.66 0.54 1.13 0.74 0.28 0.15 0.04 0.06 0.07 0.06 0.15 0.21 0.35 0.47 0.78 0.87 0.88 0.93 0.85 0.87 1.14 1.20 0.91 0.71 0.72 0.63 0.62 0.64 0.67 0.88 0.86 0.89 0.94 0.83 0.75 0.74 0.82 0.83 1.22 1.61 1.37
0.25 0.50 0.92 0.92 0.57 0.55 0.27 0.09 0.05 0.10 0.12 0.08 0.09 0.13 0.17 0.18 0.27 0.70 0.91 0.62 0.81 0.71 0.51 0.39 0.59 0.85 0.82 0.70 0.64 0.59 0.60 0.55 0.55 0.84 0.94 0.96 1.05 1.15 1.10 1.09 1.27 1.31 1.23 1.07
0.45 0.54 1.06 1.11 0.81 0.50 0.20 0.06 0.05 0.06 0.21 0.08 0.05 0.06 0.07 0.15 0.39 0.42 0.49 0.48 0.60 0.35 0.16 0.07 0.05 0.12 0.30 0.49 0.62 0.57 0.58 0.61 0.54 0.62 0.84 0.98 1.06 1.32 1.54 1.67 1.51 1.24 1.16 1.23
0.47 0.84 1.17 1.10 1.10 0.42 0.06 0.09 0.10 0.33 0.47 0.11 0.08 0.06 0.06 0.15 0.29 0.36 0.28 0.52 0.68 0.13 0.02 0.01 0.01 0.01 0.02 0.05 0.17 0.31 0.38 0.52 0.64 0.55 0.61 0.84 1.10 1.13 1.23 1.27 1.33 1.37 1.34 1.24
0.28 0.51 0.59 0.89 1.04 0.52 0.16 0.33 0.43 0.45 0.20 0.10 0.11 0.10 0.11 0.17 0.34 0.43 0.49 0.52 0.31 0.10 0.01 0.00 0.00 0.00 0.00 0.00 0.01 0.08 0.16 0.16 0.23 0.36 0.42 0.44 0.47 0.65 0.74 0.85 0.98 0.99 1.02 1.09
0.62 0.34 0.39 0.42 0.53 0.47 0.37 0.46 0.37 0.20 0.24 0.24 0.17 0.13 0.18 0.43 0.66 0.74 0.71 0.57 0.31 0.09 0.01 0.00 0.00 0.00 0.00 0.01 0.02 0.07 0.10 0.09 0.09 0.11 0.16 0.22 0.22 0.25 0.39 0.54 0.62 0.67 0.75 0.78
0.70 0.70 0.86 0.96 0.78 0.45 0.54 0.51 0.30 0.29 0.34 0.27 0.17 0.19 0.26 0.34 0.40 0.42 0.40 0.37 0.23 0.07 0.02 0.02 0.02 0.02 0.05 0.06 0.06 0.09 0.08 0.08 0.09 0.09 0.08 0.08 0.10 0.15 0.15 0.19 0.26 0.34 0.44 0.51
0.52 0.69 0.78 1.25 0.91 0.67 0.62 1.09 0.62 0.34 0.23 0.15 0.07 0.05 0.07 0.06 0.06 0.06 0.07 0.07 0.06 0.05 0.04 0.04 0.06 0.08 0.06 0.05 0.08 0.12 0.13 0.11 0.11 0.10 0.10 0.10 0.10 0.11 0.09 0.15 0.26 0.29 0.51 0.57
0.18 0.45 0.94 1.13 1.23 1.12 1.02 0.92 0.81 0.59 0.40 0.22 0.14 0.11 0.11 0.07 0.10 0.08 0.12 0.11 0.06 0.04 0.05 0.06 0.06 0.07 0.09 0.09 0.12 0.13 0.12 0.12 0.13 0.15 0.16 0.23 0.20 0.19 0.18 0.19 0.27 0.39 0.50 0.55

GFSCGP_prec_precacc_174.txt.gz
Total_Precipitation_Accumulation
0.01 0.00 0.01 0.00 0.00 0.01 0.01 0.01 0.03 0.01 0.00 0.00 0.00 0.01 0.02 0.03 0.04 0.04 0.02 0.01 0.01 0.00 0.01 0.05 0.08 0.11 0.12 0.20 0.56 0.70 0.86 0.73 0.54 0.42 0.41 0.38 0.41 0.33 0.38 0.37 0.55 0.72 1.14 1.32
0.04 0.04 0.01 0.00 0.01 0.03 0.05 0.09 0.04 0.01 0.01 0.06 0.04 0.01 0.00 0.01 0.17 0.03 0.01 0.01 0.00 0.00 0.00 0.01 0.02 0.08 0.22 0.43 0.48 0.41 0.33 0.20 0.20 0.17 0.28 0.34 0.37 0.30 0.25 0.32 0.43 1.00 1.07 1.14
0.07 0.03 0.00 0.01 0.02 0.02 0.02 0.02 0.00 0.01 0.05 0.17 0.11 0.03 0.00 0.00 0.02 0.05 0.03 0.03 0.01 0.01 0.04 0.06 0.09 0.12 0.12 0.10 0.06 0.09 0.15 0.10 0.21 0.23 0.23 0.28 0.41 0.48 0.41 0.38 0.42 0.73 0.79 0.89
0.04 0.00 0.01 0.04 0.04 0.04 0.06 0.02 0.01 0.02 0.17 0.20 0.18 0.15 0.02 0.01 0.00 0.08 0.02 0.04 0.04 0.05 0.05 0.03 0.01 0.01 0.01 0.05 0.08 0.12 0.13 0.19 0.21 0.33 0.14 0.26 0.20 0.22 0.22 0.26 0.28 0.51 0.64 0.71
0.06 0.01 0.02 0.03 0.02 0.02 0.02 0.01 0.04 0.09 0.12 0.17 0.12 0.28 0.05 0.07 0.14 0.23 0.18 0.17 0.10 0.08 0.07 0.06 0.03 0.05 0.06 0.05 0.08 0.09 0.13 0.25 0.27 0.26 0.20 0.35 0.30 0.22 0.19 0.27 0.36 0.47 0.62 0.57
0.02 0.02 0.07 0.05 0.01 0.02 0.06 0.06 0.20 0.22 0.17 0.24 0.03 0.18 0.11 0.17 0.45 0.45 0.49 0.26 0.14 0.13 0.18 0.16 0.14 0.14 0.12 0.11 0.23 0.12 0.13 0.13 0.29 0.35 0.39 0.48 0.63 0.47 0.29 0.23 0.25 0.34 0.54 0.49
0.07 0.08 0.02 0.01 0.05 0.03 0.06 0.16 0.37 0.53 0.44 0.16 0.09 0.15 0.17 0.27 0.31 0.61 0.77 0.46 0.19 0.20 0.17 0.16 0.21 0.32 0.29 0.28 0.35 0.18 0.10 0.16 0.23 0.41 0.55 0.60 1.09 1.25 1.16 0.74 0.44 0.53 0.61 0.48
0.16 0.24 0.05 0.01 0.02 0.03 0.06 0.15 0.32 0.70 0.53 0.27 0.19 0.24 0.42 0.38 0.52 0.45 0.31 0.64 0.26 0.25 0.24 0.28 0.61 0.43 0.38 0.50 0.57 0.39 0.22 0.28 0.31 0.46 0.72 0.74 0.80 1.07 1.78 1.93 1.96 1.57 1.10 0.86
0.36 0.43 0.03 0.02 0.03 0.03 0.03 0.08 0.11 0.55 0.54 0.77 0.61 0.68 0.77 0.32 0.58 0.92 0.73 0.45 0.41 0.26 0.31 0.46 0.55 0.32 0.31 1.01 1.23 0.70 0.52 0.36 0.37 0.45 0.62 0.65 0.92 1.28 1.58 2.05 2.33 3.07 2.91 2.17
0.39 0.86 0.07 0.06 0.07 0.04 0.03 0.09 0.48 1.09 1.46 0.96 0.45 0.79 1.29 1.24 1.34 1.43 1.20 0.83 0.67 0.45 0.39 0.45 0.73 0.31 0.32 1.25 1.06 0.69 0.73 0.83 0.69 0.47 0.49 0.61 0.74 0.95 1.36 1.64 2.56 2.80 3.21 3.52
0.25 0.88 0.19 0.04 0.14 0.03 0.02 0.13 0.40 0.64 0.45 1.11 1.11 1.35 1.44 1.87 1.69 1.31 1.48 1.39 0.84 0.69 0.79 0.52 0.66 0.46 0.34 0.66 1.08 1.10 0.89 1.28 1.36 1.21 1.13 0.85 1.10 1.08 1.43 1.59 1.97 2.66 2.51 2.62
0.08 0.36 0.12 0.04 0.03 0.03 0.03 0.05 0.20 0.84 0.84 1.13 1.71 1.95 2.13 1.51 0.85 0.74 0.96 1.41 1.13 0.77 1.13 0.84 0.66 0.62 0.60 0.47 0.60 1.23 1.35 1.70 2.01 2.58 2.54 1.68 1.79 1.77 1.64 1.83 1.87 1.87 2.14 2.32
0.23 0.46 0.38 0.28 0.19 0.39 0.22 0.13 0.23 0.48 0.95 1.64 1.78 2.10 1.94 1.25 0.77 0.65 0.75 0.90 1.04 0.94 0.90 1.07 0.83 0.57 0.72 0.61 1.01 1.09 1.33 1.41 2.36 3.02 3.11 2.12 2.27 2.03 2.02 2.11 1.93 1.59 1.47 1.42
0.30 0.63 0.61 0.67 0.67 0.86 0.74 0.56 0.45 1.02 1.70 1.15 0.93 0.92 0.94 1.34 1.21 0.91 0.65 0.59 0.82 0.94 0.91 0.97 0.91 0.78 0.64 0.65 1.06 1.03 1.09 1.30 1.93 2.02 2.48 2.35 2.17 2.46 1.83 1.56 1.77 1.87 1.55 1.49
0.38 1.09 0.65 0.60 0.66 0.48 0.72 1.16 1.18 0.93 0.83 0.98 0.98 0.62 0.50 0.67 1.14 1.06 0.95 0.75 0.66 0.95 0.68 0.76 0.70 0.78 0.75 0.62 0.67 0.71 0.75 0.93 1.18 1.30 1.38 1.65 2.10 2.16 1.99 2.03 2.08 1.85 1.90 2.04
0.32 0.90 0.93 0.74 0.63 0.41 0.63 0.95 0.65 0.63 0.97 0.87 0.54 0.74 0.55 0.55 0.75 0.91 0.98 0.86 0.53 0.69 0.69 0.89 0.67 0.52 0.61 0.51 0.47 0.51 0.58 0.69 0.70 0.72 0.89 0.81 0.71 0.89 1.22 1.37 1.32 1.07 1.40 1.74
0.44 0.65 0.73 0.61 0.27 0.27 0.81 0.88 0.50 0.30 0.28 0.26 0.20 0.41 0.43 0.52 0.48 0.78 0.90 0.88 0.75 0.72 0.68 0.97 0.90 0.67 0.59 0.67 0.65 0.66 0.65 0.70 0.65 0.66 0.77 0.72 0.63 0.71 0.67 0.87 0.96 1.03 0.99 1.31
0.49 0.50 0.83 0.69 0.55 1.16 0.75 0.28 0.15 0.04 0.06 0.07 0.06 0.15 0.21 0.35 0.47 0.78 0.87 0.88 0.93 0.85 0.87 1.14 1.21 0.91 0.71 0.72 0.65 0.64 0.64 0.67 0.88 0.86 0.89 0.94 0.83 0.75 0.74 0.82 0.83 1.22 1.61 1.37
0.25 0.52 0.96 0.97 0.60 0.56 0.27 0.09 0.05 0.10 0.13 0.08 0.09 0.13 0.17 0.18 0.27 0.71 0.91 0.62 0.81 0.71 0.52 0.41 0.61 0.86 0.82 0.70 0.64 0.59 0.60 0.55 0.55 0.84 0.94 0.96 1.05 1.15 1.10 1.09 1.27 1.31 1.23 1.07
0.45 0.55 1.11 1.15 0.85 0.51 0.20 0.06 0.06 0.13 0.29 0.13 0.09 0.08 0.09 0.15 0.40 0.45 0.53 0.52 0.65 0.35 0.17 0.10 0.10 0.16 0.31 0.50 0.62 0.57 0.58 0.61 0.54 0.62 0.84 0.98 1.06 1.32 1.54 1.67 1.51 1.24 1.16 1.23
0.53 0.92 1.26 1.20 1.20 0.47 0.09 0.10 0.11 0.38 0.56 0.16 0.11 0.06 0.06 0.15 0.31 0.45 0.33 0.56 0.69 0.13 0.02 0.01 0.02 0.02 0.02 0.05 0.17 0.31 0.38 0.52 0.64 0.55 0.61 0.84 1.10 1.13 1.23 1.27 1.33 1.37 1.34 1.24
0.30 0.58 0.66 0.95 1.10 0.56 0.20 0.37 0.50 0.48 0.21 0.11 0.12 0.10 0.11 0.17 0.35 0.52 0.58 0.61 0.35 0.10 0.01 0.00 0.00 0.00 0.00 0.01 0.01 0.08 0.16 0.16 0.23 0.36 0.42 0.44 0.47 0.65 0.74 0.85 0.98 0.99 1.02 1.09
0.64 0.36 0.43 0.47 0.61 0.58 0.48 0.49 0.37 0.21 0.24 0.24 0.17 0.13 0.19 0.43 0.66 0.77 0.74 0.57 0.32 0.10 0.01 0.00 0.00 0.00 0.00 0.01 0.02 0.07 0.10 0.09 0.09 0.11 0.16 0.22 0.22 0.25 0.39 0.54 0.62 0.67 0.75 0.78
0.78 0.82 1.12 1.06 0.78 0.46 0.58 0.56 0.31 0.29 0.34 0.28 0.18 0.19 0.27 0.35 0.40 0.44 0.44 0.38 0.24 0.07 0.02 0.02 0.02 0.02 0.05 0.06 0.06 0.09 0.08 0.08 0.09 0.09 0.08 0.08 0.10 0.15 0.15 0.19 0.26 0.34 0.44 0.51
0.55 0.75 0.85 1.30 0.92 0.68 0.62 1.09 0.62 0.34 0.23 0.15 0.07 0.05 0.07 0.07 0.09 0.09 0.11 0.08 0.06 0.05 0.04 0.04 0.06 0.08 0.06 0.05 0.08 0.12 0.13 0.11 0.11 0.10 0.10 0.10 0.10 0.11 0.09 0.15 0.26 0.29 0.51 0.57
0.18 0.47 1.09 1.23 1.25 1.14 1.03 0.92 0.81 0.59 0.40 0.22 0.14 0.12 0.11 0.07 0.14 0.23 0.24 0.17 0.06 0.04 0.05 0.06 0.06 0.07 0.09 0.09 0.12 0.13 0.12 0.12 0.13 0.15 0.16 0.23 0.20 0.19 0.18 0.19 0.27 0.39 0.50 0.55

GFSCGP_prec_precacc_177.txt.gz
Total_Precipitation_Accumulation
0.01 0.00 0.01 0.00 0.00 0.01 0.01 0.01 0.03 0.01 0.00 0.00 0.00 0.01 0.02 0.03 0.04 0.04 0.02 0.01 0.01 0.00 0.01 0.05 0.08 0.11 0.12 0.20 0.56 0.70 0.86 0.73 0.54 0.42 0.41 0.38 0.41 0.33 0.38 0.37 0.55 0.72 1.14 1.32
0.04 0.04 0.01 0.00 0.01 0.03 0.05 0.09 0.04 0.01 0.01 0.06 0.04 0.01 0.00 0.01 0.17 0.03 0.01 0.01 0.00 0.00 0.00 0.01 0.02 0.08 0.22 0.43 0.48 0.41 0.33 0.20 0.20 0.17 0.28 0.34 0.37 0.30 0.25 0.32 0.43 1.00 1.07 1.14
0.07 0.03 0.00 0.01 0.02 0.02 0.02 0.02 0.00 0.01 0.05 0.17 0.11 0.03 0.00 0.00 0.02 0.05 0.03 0.03 0.01 0.01 0.04 0.06 0.09 0.12 0.12 0.10 0.06 0.09 0.15 0.10 0.21 0.23 0.23 0.28 0.41 0.48 0.41 0.38 0.42 0.73 0.79 0.89
0.04 0.00 0.01 0.04 0.04 0.04 0.06 0.02 0.01 0.02 0.17 0.20 0.18 0.15 0.02 0.01 0.00 0.08 0.02 0.04 0.04 0.05 0.05 0.03 0.01 0.01 0.01 0.05 0.08 0.12 0.13 0.19 0.21 0.33 0.14 0.26 0.20 0.22 0.22 0.26 0.28 0.51 0.64 0.71
0.06 0.01 0.02 0.03 0.02 0.02 0.02 0.01 0.04 0.09 0.12 0.17 0.12 0.28 0.05 0.07 0.14 0.23 0.18 0.17 0.10 0.08 0.07 0.06 0.03 0.05 0.06 0.05 0.08 0.09 0.13 0.25 0.27 0.26 0.20 0.35 0.30 0.22 0.19 0.27 0.36 0.47 0.62 0.57
0.02 0.02 0.07 0.05 0.01 0.02 0.06 0.06 0.20 0.22 0.18 0.27 0.03 0.18 0.12 0.17 0.45 0.45 0.49 0.26 0.14 0.13 0.18 0.16 0.14 0.14 0.12 0.11 0.23 0.12 0.13 0.13 0.29 0.35 0.39 0.48 0.63 0.47 0.29 0.23 0.25 0.34 0.54 0.49
0.07 0.08 0.02 0.01 0.05 0.03 0.06 0.16 0.37 0.54 0.45 0.20 0.09 0.15 0.17 0.27 0.31 0.61 0.77 0.46 0.19 0.20 0.17 0.16 0.21 0.32 0.29 0.28 0.35 0.18 0.10 0.16 0.23 0.41 0.55 0.60 1.09 1.25 1.16 0.74 0.44 0.53 0.61 0.48
0.16 0.24 0.05 0.01 0.02 0.03 0.06 0.15 0.32 0.70 0.53 0.27 0.19 0.24 0.42 0.38 0.52 0.45 0.31 0.64 0.26 0.25 0.24 0.28 0.61 0.43 0.38 0.50 0.57 0.39 0.22 0.28 0.31 0.46 0.72 0.74 0.80 1.07 1.78 1.93 1.96 1.57 1.10 0.86
0.36 0.43 0.03 0.02 0.03 0.03 0.03 0.08 0.11 0.57 0.56 0.78 0.61 0.68 0.77 0.33 0.59 0.92 0.73 0.45 0.41 0.26 0.31 0.46 0.55 0.32 0.31 1.01 1.23 0.70 0.52 0.36 0.37 0.45 0.62 0.65 0.92 1.28 1.58 2.05 2.33 3.07 2.91 2.17
0.39 0.86 0.07 0.06 0.07 0.04 0.03 0.10 0.55 1.20 1.60 1.05 0.48 0.79 1.29 1.24 1.34 1.43 1.20 0.84 0.67 0.45 0.39 0.45 0.73 0.31 0.32 1.25 1.06 0.69 0.73 0.83 0.69 0.47 0.49 0.61 0.74 0.95 1.36 1.64 2.56 2.80 3.21 3.52
0.25 0.88 0.19 0.04 0.14 0.03 0.02 0.15 0.44 0.73 0.58 1.21 1.15 1.35 1.44 1.87 1.69 1.31 1.48 1.39 0.84 0.69 0.79 0.52 0.66 0.46 0.34 0.66 1.08 1.10 0.89 1.28 1.36 1.21 1.13 0.85 1.10 1.08 1.43 1.59 1.97 2.66 2.51 2.62
0.09 0.37 0.12 0.04 0.03 0.03 0.04 0.09 0.22 0.92 0.94 1.20 1.73 1.96 2.13 1.51 0.85 0.74 0.96 1.41 1.13 0.77 1.13 0.84 0.66 0.62 0.60 0.47 0.60 1.23 1.35 1.70 2.01 2.58 2.54 1.68 1.79 1.77 1.64 1.83 1.87 1.87 2.14 2.32
0.24 0.49 0.38 0.28 0.19 0.39 0.24 0.19 0.27 0.55 1.06 1.70 1.81 2.12 1.94 1.25 0.77 0.65 0.75 0.90 1.04 0.94 0.90 1.07 0.83 0.57 0.72 0.61 1.01 1.09 1.33 1.41 2.36 3.02 3.11 2.12 2.27 2.03 2.02 2.11 1.93 1.59 1.47 1.42
0.32 0.68 0.64 0.68 0.67 0.86 0.74 0.57 0.46 1.05 1.75 1.21 0.98 0.95 0.95 1.34 1.21 0.91 0.65 0.59 0.82 0.94 0.91 0.97 0.91 0.78 0.64 0.65 1.06 1.03 1.09 1.30 1.93 2.02 2.48 2.35 2.17 2.46 1.83 1.56 1.77 1.87 1.55 1.49
0.39 1.11 0.66 0.60 0.66 0.48 0.72 1.16 1.18 0.95 0.85 1.03 1.00 0.62 0.50 0.67 1.14 1.06 0.95 0.75 0.66 0.95 0.68 0.76 0.70 0.78 0.75 0.62 0.67 0.71 0.75 0.93 1.18 1.30 1.38 1.65 2.10 2.16 1.99 2.03 2.08 1.85 1.90 2.04
0.33 0.91 0.94 0.74 0.63 0.41 0.63 0.95 0.65 0.63 0.97 0.87 0.54 0.74 0.55 0.55 0.75 0.91 0.98 0.86 0.53 0.69 0.69 0.89 0.67 0.52 0.61 0.51 0.47 0.51 0.58 0.69 0.70 0.72 0.89 0.81 0.71 0.89 1.22 1.37 1.32 1.07 1.40 1.74
0.45 0.67 0.77 0.63 0.27 0.28 0.83 0.88 0.50 0.30 0.28 0.26 0.20 0.41 0.43 0.52 0.48 0.78 0.90 0.88 0.75 0.72 0.68 0.97 0.90 0.67 0.59 0.67 0.65 0.67 0.66 0.71 0.67 0.67 0.77 0.72 0.63 0.71 0.67 0.87 0.96 1.03 0.99 1.31
0.51 0.51 0.86 0.72 0.56 1.19 0.76 0.28 0.15 0.04 0.06 0.07 0.06 0.15 0.21 0.35 0.47 0.78 0.87 0.88 0.93 0.85 0.89 1.15 1.21 0.92 0.71 0.72 0.65 0.65 0.67 0.70 0.91 0.88 0.90 0.94 0.83 0.75 0.74 0.82 0.83 1.22 1.61 1.37
0.25 0.52 0.97 0.98 0.61 0.57 0.27 0.09 0.05 0.13 0.13 0.08 0.09 0.13 0.17 0.18 0.27 0.71 0.91 0.63 0.82 0.73 0.57 0.47 0.64 0.90 0.86 0.73 0.66 0.60 0.61 0.57 0.57 0.84 0.94 0.96 1.05 1.15 1.10 1.09 1.27 1.31 1.23 1.07
0.45 0.55 1.13 1.16 0.87 0.52 0.20 0.06 0.06 0.13 0.31 0.14 0.09 0.09 0.09 0.15 0.40 0.45 0.54 0.53 0.70 0.43 0.21 0.15 0.17 0.27 0.38 0.57 0.72 0.70 0.65 0.64 0.54 0.62 0.84 0.98 1.06 1.32 1.54 1.67 1.51 1.24 1.16 1.23
0.56 0.96 1.33 1.26 1.31 0.53 0.09 0.10 0.11 0.39 0.58 0.17 0.12 0.06 0.06 0.15 0.31 0.45 0.33 0.56 0.70 0.17 0.06 0.03 0.05 0.14 0.21 0.28 0.36 0.46 0.48 0.52 0.64 0.55 0.61 0.84 1.10 1.13 1.23 1.27 1.33 1.37 1.34 1.24
0.31 0.62 0.74 1.07 1.25 0.63 0.21 0.39 0.53 0.53 0.24 0.12 0.13 0.10 0.11 0.17 0.35 0.52 0.58 0.61 0.37 0.12 0.03 0.01 0.01 0.01 0.04 0.10 0.14 0.17 0.18 0.16 0.23 0.36 0.42 0.44 0.47 0.65 0.74 0.85 0.98 0.99 1.02 1.09
0.65 0.37 0.44 0.50 0.68 0.62 0.52 0.52 0.38 0.21 0.24 0.24 0.17 0.13 0.19 0.43 0.66 0.77 0.74 0.57 0.33 0.11 0.02 0.01 0.00 0.00 0.01 0.03 0.07 0.10 0.10 0.09 0.09 0.11 0.16 0.22 0.22 0.25 0.39 0.54 0.62 0.67 0.75 0.78
0.78 0.82 1.13 1.14 0.83 0.60 0.71 0.60 0.32 0.29 0.34 0.28 0.18 0.19 0.27 0.35 0.40 0.44 0.45 0.40 0.30 0.07 0.02 0.02 0.02 0.02 0.06 0.08 0.07 0.09 0.08 0.08 0.09 0.09 0.08 0.08 0.10 0.15 0.15 0.19 0.26 0.34 0.44 0.51
0.55 0.75 0.85 1.34 0.97 0.81 0.77 1.14 0.64 0.34 0.23 0.15 0.07 0.05 0.07 0.07 0.09 0.10 0.13 0.13 0.11 0.07 0.04 0.04 0.06 0.08 0.06 0.05 0.08 0.12 0.13 0.11 0.11 0.10 0.10 0.10 0.10 0.11 0.09 0.15 0.26 0.29 0.51 0.57
0.18 0.47 1.14 1.41 1.43 1.33 1.13 0.94 0.82 0.59 0.40 0.22 0.14 0.12 0.11 0.07 0.14 0.24 0.34 0.31 0.21 0.09 0.06 0.06 0.06 0.07 0.09 0.09 0.12 0.13 0.12 0.12 0.13 0.15 0.16 0.23 0.20 0.19 0.18 0.19 0.27 0.39 0.50 0.55

GFSCGP_prec_precacc_183.txt.gz
Total_Precipitation_Accumulation
0.01 0.00 0.01 0.00 0.00 0.01 0.01 0.01 0.03 0.01 0.00 0.00 0.00 0.01 0.02 0.03 0.04 0.04 0.02 0.01 0.01 0.00 0.01 0.05 0.08 0.11 0.12 0.20 0.56 0.70 0.86 0.73 0.54 0.42 0.41 0.38 0.41 0.33 0.38 0.37 0.55 0.72 1.14 1.32
0.04 0.04 0.01 0.00 0.01 0.03 0.05 0.09 0.04 0.01 0.01 0.06 0.04 0.01 0.00 0.01 0.17 0.03 0.01 0.01 0.00 0.00 0.00 0.01 0.02 0.08 0.22 0.43 0.48 0.41 0.33 0.20 0.20 0.17 0.28 0.34 0.37 0.30 0.25 0.32 0.43 1.00 1.07 1.14
0.07 0.03 0.00 0.01 0.02 0.02 0.02 0.02 0.00 0.01 0.05 0.17 0.11 0.03 0.00 0.00 0.02 0.05 0.03 0.03 0.01 0.01 0.04 0.06 0.09 0.12 0.12 0.10 0.06 0.09 0.15 0.10 0.21 0.23 0.23 0.28 0.41 0.48 0.41 0.38 0.42 0.73 0.79 0.89
0.04 0.00 0.01 0.04 0.04 0.04 0.06 0.02 0.01 0.02 0.17 0.20 0.18 0.15 0.02 0.01 0.00 0.08 0.02 0.04 0.04 0.05 0.05 0.03 0.01 0.01 0.01 0.05 0.08 0.12 0.13 0.19 0.21 0.33 0.14 0.26 0.20 0.22 0.22 0.26 0.28 0.51 0.64 0.71
0.06 0.01 0.02 0.03 0.02 0.02 0.02 0.01 0.04 0.09 0.12 0.17 0.12 0.28 0.05 0.07 0.14 0.23 0.18 0.17 0.10 0.08 0.07 0.06 0.03 0.05 0.06 0.05 0.08 0.09 0.13 0.25 0.27 0.26 0.20 0.35 0.30 0.22 0.19 0.27 0.36 0.47 0.62 0.57
0.02 0.02 0.07 0.05 0.01 0.02 0.06 0.06 0.20 0.22 0.18 0.29 0.03 0.18 0.12 0.17 0.45 0.45 0.49 0.26 0.14 0.13 0.18 0.16 0.14 0.14 0.12 0.11 0.23 0.12 0.13 0.13 0.29 0.35 0.39 0.48 0.63 0.47 0.29 0.23 0.25 0.34 0.54 0.49
0.07 0.08 0.02 0.01 0.05 0.03 0.06 0.16 0.38 0.55 0.47 0.23 0.09 0.15 0.17 0.27 0.31 0.61 0.77 0.46 0.19 0.20 0.17 0.16 0.21 0.32 0.29 0.28 0.35 0.18 0.10 0.16 0.23 0.41 0.55 0.60 1.09 1.25 1.16 0.74 0.44 0.53 0.61 0.48
0.16 0.24 0.05 0.01 0.02 0.03 0.06 0.16 0.33 0.72 0.54 0.27 0.19 0.24 0.42 0.38 0.52 0.45 0.31 0.64 0.26 0.25 0.24 0.28 0.61 0.43 0.38 0.50 0.57 0.39 0.22 0.28 0.31 0.47 0.72 0.74 0.80 1.07 1.78 1.93 1.96 1.57 1.10 0.86
0.36 0.43 0.03 0.02 0.03 0.03 0.03 0.08 0.12 0.60 0.59 0.81 0.61 0.68 0.77 0.33 0.59 0.92 0.73 0.45 0.41 0.26 0.31 0.46 0.55 0.32 0.31 1.01 1.23 0.70 0.52 0.36 0.37 0.46 0.62 0.65 0.92 1.28 1.58 2.05 2.33 3.07 2.91 2.17
0.40 0.87 0.07 0.06 0.07 0.04 0.03 0.11 0.59 1.30 1.79 1.17 0.50 0.79 1.29 1.24 1.34 1.43 1.20 0.84 0.67 0.45 0.39 0.45 0.73 0.31 0.32 1.25 1.06 0.69 0.73 0.83 0.70 0.47 0.49 0.61 0.74 0.95 1.36 1.64 2.56 2.80 3.21 3.52
0.27 0.89 0.20 0.04 0.15 0.04 0.03 0.16 0.52 0.88 0.79 1.40 1.30 1.40 1.44 1.87 1.69 1.31 1.48 1.39 0.84 0.69 0.79 0.52 0.66 0.46 0.34 0.66 1.08 1.10 0.90 1.29 1.37 1.21 1.13 0.85 1.10 1.08 1.43 1.59 1.97 2.66 2.51 2.62
0.16 0.49 0.20 0.07 0.04 0.07 0.11 0.17 0.32 1.08 1.10 1.37 1.87 2.04 2.13 1.52 0.87 0.75 0.97 1.42 1.13 0.77 1.13 0.84 0.66 0.62 0.60 0.47 0.60 1.23 1.35 1.70 2.01 2.58 2.54 1.68 1.79 1.77 1.64 1.83 1.87 1.87 2.14 2.32
0.32 0.59 0.47 0.33 0.27 0.47 0.35 0.36 0.55 0.92 1.41 1.98 2.11 2.30 1.98 1.32 0.83 0.70 0.80 0.94 1.06 0.96 0.93 1.10 0.83 0.57 0.72 0.61 1.01 1.10 1.33 1.41 2.36 3.02 3.11 2.12 2.27 2.03 2.02 2.11 1.93 1.59 1.47 1.42
0.61 1.01 0.83 0.79 0.73 0.90 0.77 0.59 0.48 1.09 1.87 1.30 1.09 0.98 0.96 1.36 1.24 0.93 0.66 0.59 0.83 0.94 0.91 0.97 0.91 0.78 0.64 0.65 1.06 1.03 1.09 1.30 1.93 2.02 2.48 2.35 2.17 2.46 1.83 1.57 1.78 1.87 1.55 1.49
0.44 1.27 0.80 0.69 0.78 0.59 0.78 1.17 1.18 0.95 0.85 1.03 1.00 0.62 0.50 0.67 1.14 1.06 0.95 0.75 0.66 0.96 0.69 0.76 0.70 0.78 0.75 0.62 0.67 0.71 0.75 0.93 1.18 1.31 1.38 1.65 2.11 2.18 2.02 2.05 2.11 1.86 1.91 2.04
0.34 0.93 0.95 0.77 0.63 0.43 0.66 0.95 0.65 0.63 0.97 0.87 0.54 0.74 0.55 0.55 0.75 0.91 0.98 0.86 0.53 0.69 0.69 0.89 0.67 0.52 0.61 0.51 0.47 0.51 0.58 0.70 0.70 0.72 0.89 0.81 0.72 0.91 1.25 1.40 1.35 1.09 1.41 1.74
0.50 0.68 0.78 0.64 0.27 0.31 0.92 0.88 0.50 0.30 0.28 0.27 0.20 0.41 0.43 0.52 0.48 0.78 0.90 0.88 0.75 0.72 0.68 0.97 0.90 0.67 0.59 0.67 0.66 0.67 0.66 0.72 0.67 0.68 0.78 0.74 0.65 0.75 0.74 0.94 1.03 1.09 1.03 1.32
0.71 0.55 0.89 0.73 0.57 1.24 0.77 0.28 0.15 0.04 0.07 0.07 0.06 0.15 0.21 0.35 0.47 0.78 0.87 0.88 0.93 0.85 0.89 1.16 1.22 0.93 0.73 0.75 0.67 0.66 0.68 0.71 0.92 0.90 0.93 1.00 0.92 0.87 0.90 0.98 0.97 1.34 1.67 1.37
0.41 0.71 1.04 1.00 0.62 0.57 0.27 0.09 0.05 0.13 0.13 0.08 0.09 0.13 0.17 0.18 0.27 0.71 0.91 0.63 0.82 0.73 0.58 0.48 0.67 0.92 0.89 0.76 0.69 0.62 0.63 0.58 0.59 0.88 0.98 1.02 1.14 1.27 1.25 1.25 1.43 1.41 1.25 1.07
0.48 0.70 1.37 1.26 0.89 0.52 0.20 0.06 0.06 0.14 0.31 0.14 0.09 0.09 0.09 0.15 0.40 0.45 0.54 0.53 0.70 0.43 0.21 0.15 0.17 0.28 0.43 0.65 0.82 0.78 0.78 0.83 0.74 0.78 0.95 1.09 1.19 1.47 1.70 1.85 1.66 1.30 1.16 1.23
0.59 1.05 1.52 1.43 1.41 0.54 0.09 0.11 0.12 0.40 0.58 0.17 0.12 0.07 0.06 0.15 0.31 0.45 0.33 0.56 0.70 0.17 0.06 0.03 0.06 0.15 0.25 0.31 0.40 0.55 0.67 0.78 0.87 0.81 0.88 1.12 1.36 1.39 1.48 1.45 1.42 1.38 1.34 1.24
0.44 0.75 0.82 1.15 1.41 0.73 0.22 0.41 0.56 0.54 0.24 0.12 0.13 0.10 0.11 0.17 0.35 0.52 0.58 0.61 0.37 0.12 0.03 0.01 0.02 0.04 0.06 0.14 0.23 0.39 0.57 0.51 0.50 0.60 0.68 0.73 0.75 0.89 0.88 0.91 0.99 0.99 1.02 1.09
0.71 0.49 0.60 0.59 0.73 0.69 0.54 0.52 0.39 0.21 0.24 0.24 0.17 0.13 0.19 0.43 0.66 0.77 0.74 0.57 0.33 0.12 0.03 0.03 0.01 0.00 0.04 0.20 0.32 0.53 0.49 0.43 0.43 0.46 0.54 0.53 0.43 0.36 0.43 0.55 0.62 0.67 0.75 0.78
0.78 0.82 1.13 1.15 0.84 0.61 0.71 0.60 0.33 0.30 0.34 0.28 0.18 0.19 0.27 0.35 0.40 0.44 0.45 0.40 0.30 0.08 0.04 0.11 0.08 0.04 0.11 0.50 0.67 0.47 0.23 0.19 0.23 0.28 0.29 0.25 0.20 0.17 0.15 0.19 0.26 0.34 0.44 0.51
0.55 0.75 0.85 1.34 0.97 0.81 0.90 1.20 0.65 0.36 0.27 0.15 0.07 0.05 0.07 0.07 0.09 0.10 0.13 0.13 0.12 0.13 0.05 0.06 0.08 0.10 0.25 0.32 0.35 0.26 0.21 0.19 0.22 0.20 0.17 0.13 0.11 0.11 0.09 0.15 0.26 0.29 0.51 0.57
0.18 0.47 1.14 1.41 1.43 1.34 1.20 1.09 1.13 0.74 0.46 0.23 0.14 0.12 0.11 0.07 0.14 0.24 0.34 0.31 0.24 0.14 0.07 0.06 0.06 0.07 0.13 0.10 0.14 0.19 0.20 0.15 0.14 0.15 0.16 0.23 0.20 0.19 0.18 0.19 0.27 0.39 0.50 0.55

GFSCGP_prec_precacc_186.txt.gz
Total_Precipitation_Accumulation
0.01 0.00 0.01 0.00 0.00 0.01 0.01 0.01 0.03 0.01 0.00 0.00 0.00 0.01 0.02 0.03 0.04 0.04 0.02 0.01 0.01 0.00 0.01 0.05 0.08 0.11 0.12 0.20 0.56 0.70 0.86 0.73 0.54 0.42 0.41 0.38 0.41 0.33 0.38 0.37 0.55 0.72 1.14 1.32
0.04 0.04 0.01 0.00 0.01 0.03 0.05 0.09 0.04 0.01 0.01 0.06 0.04 0.01 0.00 0.01 0.17 0.03 0.01 0.01 0.00 0.00 0.00 0.01 0.02 0.08 0.22 0.43 0.48 0.41 0.33 0.20 0.20 0.17 0.28 0.34 0.37 0.30 0.25 0.32 0.43 1.00 1.07 1.14
0.07 0.03 0.00 0.01 0.02 0.02 0.02 0.02 0.00 0.01 0.05 0.17 0.11 0.03 0.00 0.00 0.02 0.05 0.03 0.03 0.01 0.01 0.04 0.06 0.09 0.12 0.12 0.10 0.06 0.09 0.15 0.10 0.21 0.23 0.23 0.28 0.41 0.48 0.41 0.38 0.42 0.73 0.79 0.89
0.04 0.00 0.01 0.04 0.04 0.04 0.06 0.02 0.01 0.02 0.17 0.20 0.18 0.15 0.02 0.01 0.00 0.08 0.02 0.04 0.04 0.05 0.05 0.03 0.01 0.01 0.01 0.05 0.08 0.12 0.13 0.19 0.21 0.33 0.14 0.26 0.20 0.22 0.22 0.26 0.28 0.51 0.64 0.71
0.06 0.01 0.02 0.03 0.02 0.02 0.02 0.01 0.04 0.09 0.12 0.18 0.12 0.29 0.05 0.07 0.14 0.23 0.18 0.17 0.10 0.08 0.07 0.06 0.03 0.05 0.06 0.05 0.08 0.09 0.13 0.25 0.27 0.26 0.20 0.36 0.31 0.23 0.19 0.27 0.36 0.47 0.62 0.57
0.02 0.02 0.07 0.05 0.01 0.02 0.06 0.06 0.20 0.22 0.18 0.30 0.03 0.18 0.12 0.17 0.45 0.45 0.49 0.26 0.14 0.13 0.18 0.16 0.14 0.14 0.12 0.11 0.23 0.12 0.13 0.13 0.29 0.35 0.39 0.49 0.64 0.47 0.29 0.23 0.25 0.34 0.54 0.49
0.07 0.08 0.02 0.01 0.05 0.03 0.06 0.17 0.39 0.56 0.49 0.25 0.09 0.15 0.17 0.27 0.31 0.61 0.77 0.46 0.19 0.20 0.17 0.16 0.21 0.32 0.29 0.28 0.35 0.18 0.10 0.16 0.23 0.41 0.55 0.60 1.09 1.25 1.16 0.74 0.44 0.53 0.61 0.48
0.16 0.24 0.05 0.01 0.02 0.03 0.06 0.16 0.33 0.72 0.54 0.27 0.19 0.24 0.42 0.38 0.52 0.45 0.31 0.64 0.26 0.25 0.24 0.28 0.61 0.43 0.38 0.50 0.57 0.39 0.22 0.28 0.31 0.47 0.72 0.74 0.80 1.07 1.78 1.93 1.96 1.57 1.10 0.86
0.36 0.43 0.03 0.02 0.03 0.03 0.03 0.08 0.12 0.61 0.60 0.84 0.62 0.68 0.77 0.33 0.59 0.92 0.73 0.45 0.41 0.26 0.31 0.46 0.55 0.32 0.31 1.01 1.23 0.70 0.52 0.36 0.37 0.47 0.64 0.68 0.94 1.28 1.58 2.05 2.33 3.07 2.91 2.17
0.40 0.87 0.07 0.06 0.07 0.04 0.03 0.11 0.59 1.33 1.89 1.24 0.50 0.79 1.29 1.24 1.34 1.43 1.20 0.84 0.67 0.45 0.39 0.45 0.73 0.31 0.32 1.25 1.06 0.69 0.73 0.83 0.70 0.49 0.51 0.63 0.76 0.95 1.36 1.64 2.56 2.80 3.21 3.52
0.28 0.91 0.20 0.04 0.15 0.04 0.03 0.16 0.52 0.89 0.80 1.41 1.31 1.40 1.44 1.87 1.69 1.31 1.48 1.39 0.84 0.69 0.79 0.52 0.66 0.46 0.34 0.66 1.08 1.10 0.90 1.29 1.37 1.22 1.14 0.86 1.10 1.08 1.43 1.59 1.97 2.66 2.51 2.62
0.21 0.57 0.23 0.07 0.05 0.08 0.11 0.17 0.33 1.10 1.12 1.40 1.90 2.07 2.13 1.52 0.87 0.75 0.97 1.42 1.13 0.77 1.13 0.84 0.66 0.62 0.60 0.47 0.60 1.24 1.36 1.72 2.04 2.63 2.60 1.71 1.80 1.77 1.64 1.83 1.87 1.87 2.14 2.32
0.45 0.81 0.69 0.47 0.41 0.62 0.43 0.40 0.58 0.95 1.51 2.13 2.32 2.53 2.08 1.39 0.92 0.79 0.87 0.96 1.07 0.96 0.93 1.10 0.84 0.58 0.73 0.62 1.03 1.12 1.36 1.45 2.43 3.14 3.25 2.21 2.31 2.03 2.02 2.11 1.93 1.59 1.47 1.42
0.65 1.14 0.92 0.82 0.74 0.93 0.83 0.66 0.59 1.30 2.08 1.43 1.19 1.04 0.99 1.40 1.26 0.94 0.67 0.59 0.83 0.94 0.91 0.98 0.91 0.79 0.65 0.66 1.06 1.04 1.10 1.33 2.01 2.14 2.63 2.49 2.19 2.46 1.83 1.57 1.78 1.87 1.55 1.49
0.47 1.34 0.84 0.75 0.83 0.65 0.83 1.23 1.25 1.03 0.94 1.10 1.02 0.63 0.50 0.68 1.14 1.06 0.95 0.75 0.66 0.96 0.69 0.76 0.70 0.78 0.75 0.62 0.67 0.71 0.76 0.93 1.19 1.33 1.42 1.69 2.12 2.19 2.02 2.05 2.11 1.86 1.91 2.04
0.36 0.98 1.00 0.80 0.67 0.53 0.78 1.03 0.70 0.67 1.00 0.90 0.55 0.74 0.55 0.55 0.75 0.91 0.98 0.86 0.53 0.69 0.69 0.89 0.67 0.52 0.61 0.51 0.47 0.51 0.58 0.70 0.71 0.73 0.91 0.85 0.77 0.95 1.28 1.41 1.35 1.09 1.41 1.76
0.63 0.71 0.81 0.67 0.27 0.33 0.98 0.89 0.50 0.30 0.28 0.27 0.20 0.41 0.43 0.52 0.48 0.78 0.90 0.88 0.75 0.72 0.68 0.97 0.90 0.67 0.59 0.67 0.66 0.67 0.66 0.72 0.67 0.68 0.79 0.75 0.67 0.78 0.76 0.94 1.03 1.09 1.04 1.35
1.04 0.74 0.97 0.77 0.60 1.31 0.78 0.28 0.15 0.04 0.07 0.07 0.06 0.15 0.21 0.35 0.47 0.78 0.87 0.88 0.93 0.85 0.89 1.16 1.22 0.93 0.73 0.75 0.67 0.66 0.68 0.71 0.92 0.90 0.94 1.01 0.94 0.89 0.92 1.00 0.98 1.34 1.72 1.45
0.50 0.91 1.23 1.05 0.65 0.58 0.27 0.09 0.05 0.13 0.13 0.08 0.09 0.13 0.17 0.18 0.27 0.71 0.91 0.63 0.82 0.73 0.58 0.48 0.67 0.92 0.89 0.76 0.69 0.62 0.63 0.58 0.59 0.89 1.00 1.04 1.16 1.29 1.28 1.31 1.47 1.47 1.36 1.17
0.50 0.80 1.63 1.48 0.96 0.53 0.20 0.06 0.06 0.14 0.31 0.14 0.09 0.09 0.09 0.15 0.40 0.45 0.54 0.53 0.70 0.43 0.21 0.15 0.17 0.28 0.43 0.65 0.82 0.78 0.78 0.83 0.74 0.78 0.96 1.11 1.23 1.53 1.79 1.97 1.79 1.47 1.32 1.35
0.63 1.11 1.62 1.64 1.61 0.61 0.09 0.11 0.12 0.40 0.58 0.17 0.12 0.07 0.06 0.15 0.31 0.45 0.33 0.56 0.70 0.17 0.06 0.03 0.06 0.15 0.25 0.31 0.40 0.55 0.67 0.78 0.87 0.82 0.89 1.15 1.42 1.48 1.63 1.73 1.77 1.67 1.53 1.36
0.55 0.83 0.85 1.22 1.55 0.84 0.26 0.42 0.56 0.54 0.24 0.12 0.13 0.10 0.11 0.17 0.35 0.52 0.58 0.61 0.37 0.12 0.03 0.01 0.02 0.04 0.06 0.14 0.23 0.39 0.57 0.52 0.50 0.60 0.69 0.77 0.87 1.12 1.19 1.30 1.37 1.26 1.19 1.17
0.78 0.57 0.70 0.70 0.87 0.86 0.60 0.54 0.40 0.21 0.24 0.24 0.17 0.13 0.19 0.43 0.66 0.77 0.74 0.57 0.33 0.12 0.03 0.03 0.01 0.01 0.05 0.20 0.32 0.54 0.49 0.45 0.46 0.49 0.64 0.75 0.71 0.77 0.90 0.87 0.83 0.80 0.83 0.81
0.78 0.83 1.13 1.15 0.88 0.69 0.81 0.62 0.33 0.30 0.34 0.28 0.18 0.19 0.27 0.35 0.40 0.44 0.45 0.40 0.30 0.08 0.04 0.11 0.09 0.06 0.12 0.52 0.71 0.50 0.26 0.23 0.33 0.42 0.48 0.53 0.57 0.59 0.51 0.43 0.38 0.40 0.47 0.52
0.55 0.75 0.85 1.34 0.98 0.81 0.90 1.20 0.65 0.36 0.27 0.15 0.07 0.05 0.07 0.07 0.09 0.10 0.13 0.13 0.12 0.13 0.05 0.06 0.09 0.10 0.26 0.39 0.41 0.31 0.28 0.27 0.31 0.33 0.35 0.34 0.34 0.33 0.26 0.24 0.31 0.32 0.51 0.57
0.18 0.47 1.14 1.41 1.43 1.34 1.20 1.09 1.13 0.74 0.46 0.23 0.14 0.12 0.11 0.07 0.14 0.24 0.34 0.31 0.24 0.14 0.07 0.07 0.06 0.07 0.13 0.11 0.19 0.28 0.33 0.29 0.29 0.30 0.29 0.33 0.31 0.27 0.24 0.22 0.30 0.39 0.50 0.55

GFSCGP_prec_precacc_189.txt.gz
Total_Precipitation_Accumulation
0.01 0.00 0.01 0.00 0.00 0.01 0.01 0.01 0.03 0.01 0.00 0.00 0.00 0.01 0.02 0.03 0.04 0.04 0.02 0.01 0.01 0.00 0.01 0.05 0.08 0.11 0.12 0.20 0.56 0.70 0.86 0.73 0.54 0.42 0.41 0.38 0.41 0.33 0.38 0.37 0.55 0.72 1.14 1.32
0.04 0.04 0.01 0.00 0.01 0.03 0.05 0.09 0.04 0.01 0.01 0.06 0.04 0.01 0.00 0.01 0.17 0.03 0.01 0.01 0.00 0.00 0.00 0.01 0.02 0.08 0.22 0.43 0.48 0.41 0.33 0.20 0.20 0.17 0.28 0.34 0.37 0.30 0.25 0.32 0.43 1.00 1.07 1.14
0.07 0.03 0.00 0.01 0.02 0.02 0.02 0.02 0.00 0.01 0.05 0.17 0.11 0.03 0.00 0.00 0.02 0.05 0.03 0.03 0.01 0.01 0.04 0.06 0.09 0.12 0.12 0.10 0.06 0.09 0.15 0.10 0.21 0.23 0.23 0.28 0.41 0.48 0.41 0.38 0.42 0.73 0.79 0.89
0.04 0.00 0.01 0.04 0.04 0.04 0.06 0.02 0.01 0.02 0.17 0.20 0.18 0.15 0.02 0.01 0.00 0.08 0.02 0.04 0.04 0.05 0.05 0.03 0.01 0.01 0.01 0.05 0.08 0.12 0.13 0.19 0.21 0.33 0.14 0.26 0.20 0.22 0.22 0.26 0.28 0.51 0.64 0.71
0.06 0.01 0.02 0.03 0.02 0.02 0.02 0.01 0.04 0.09 0.12 0.18 0.12 0.29 0.05 0.07 0.14 0.23 0.18 0.17 0.10 0.08 0.07 0.06 0.03 0.05 0.06 0.05 0.08 0.09 0.13 0.25 0.27 0.26 0.20 0.36 0.31 0.23 0.20 0.27 0.36 0.47 0.62 0.57
0.02 0.02 0.07 0.05 0.01 0.02 0.06 0.06 0.20 0.22 0.18 0.32 0.03 0.18 0.12 0.17 0.45 0.45 0.49 0.26 0.14 0.13 0.18 0.16 0.14 0.14 0.12 0.11 0.23 0.12 0.13 0.13 0.29 0.35 0.39 0.49 0.64 0.48 0.31 0.24 0.26 0.35 0.54 0.49
0.07 0.08 0.02 0.01 0.05 0.03 0.06 0.17 0.42 0.60 0.52 0.27 0.09 0.15 0.17 0.27 0.31 0.61 0.77 0.46 0.19 0.20 0.17 0.16 0.21 0.32 0.29 0.28 0.35 0.18 0.10 0.16 0.23 0.41 0.55 0.60 1.09 1.26 1.16 0.75 0.44 0.53 0.61 0.48
0.16 0.24 0.05 0.01 0.02 0.03 0.06 0.16 0.34 0.73 0.55 0.27 0.19 0.24 0.42 0.38 0.52 0.45 0.31 0.64 0.26 0.25 0.24 0.28 0.61 0.43 0.38 0.50 0.57 0.39 0.22 0.28 0.31 0.47 0.72 0.74 0.80 1.07 1.78 1.93 1.96 1.57 1.10 0.86
0.36 0.43 0.03 0.02 0.03 0.03 0.03 0.09 0.12 0.62 0.62 0.88 0.62 0.68 0.77 0.33 0.59 0.92 0.73 0.45 0.41 0.26 0.31 0.46 0.55 0.32 0.31 1.01 1.23 0.70 0.52 0.36 0.37 0.47 0.64 0.68 0.94 1.29 1.58 2.05 2.33 3.07 2.91 2.17
0.42 0.88 0.07 0.06 0.07 0.04 0.03 0.11 0.59 1.36 1.98 1.32 0.52 0.79 1.29 1.24 1.34 1.43 1.20 0.84 0.67 0.45 0.39 0.45 0.73 0.31 0.32 1.25 1.06 0.69 0.73 0.83 0.70 0.49 0.51 0.63 0.77 0.99 1.39 1.64 2.56 2.80 3.21 3.52
0.31 0.94 0.21 0.04 0.15 0.04 0.03 0.17 0.53 0.90 0.81 1.41 1.31 1.40 1.44 1.87 1.69 1.31 1.48 1.39 0.84 0.69 0.79 0.52 0.66 0.46 0.34 0.66 1.08 1.10 0.90 1.29 1.37 1.22 1.15 0.88 1.16 1.16 1.50 1.63 1.99 2.66 2.51 2.62
0.33 0.65 0.28 0.08 0.05 0.08 0.11 0.18 0.35 1.12 1.14 1.41 1.92 2.08 2.13 1.52 0.87 0.75 0.97 1.42 1.13 0.77 1.13 0.84 0.66 0.62 0.60 0.47 0.60 1.24 1.36 1.72 2.04 2.63 2.62 1.78 1.92 1.93 1.79 1.95 1.91 1.87 2.14 2.32
0.72 1.22 1.14 0.80 0.63 0.72 0.45 0.40 0.59 0.99 1.55 2.16 2.37 2.58 2.09 1.42 0.97 0.83 0.91 0.98 1.07 0.96 0.93 1.10 0.84 0.58 0.73 0.62 1.03 1.12 1.36 1.46 2.44 3.16 3.36 2.42 2.60 2.32 2.26 2.27 1.99 1.59 1.47 1.42
0.80 1.34 1.07 0.99 0.94 1.16 1.10 0.87 0.73 1.44 2.30 1.62 1.38 1.23 1.14 1.48 1.29 0.95 0.68 0.59 0.83 0.94 0.91 0.98 0.91 0.79 0.65 0.66 1.06 1.04 1.10 1.33 2.02 2.18 2.76 2.74 2.62 2.89 2.11 1.71 1.85 1.88 1.55 1.49
0.62 1.64 0.95 0.78 0.83 0.66 0.86 1.25 1.29 1.11 1.04 1.24 1.15 0.74 0.59 0.75 1.17 1.06 0.95 0.75 0.66 0.96 0.69 0.76 0.70 0.78 0.75 0.62 0.67 0.71 0.76 0.93 1.20 1.35 1.47 1.79 2.33 2.41 2.20 2.20 2.19 1.89 1.91 2.04
0.47 1.15 1.09 0.89 0.69 0.54 0.80 1.05 0.72 0.70 1.03 0.93 0.56 0.75 0.55 0.55 0.76 0.91 0.98 0.86 0.53 0.69 0.69 0.89 0.67 0.52 0.61 0.51 0.47 0.51 0.58 0.70 0.71 0.73 0.92 0.87 0.83 1.05 1.42 1.56 1.43 1.13 1.43 1.76
0.74 0.91 1.02 0.83 0.35 0.44 1.14 0.93 0.52 0.32 0.29 0.27 0.21 0.41 0.43 0.52 0.48 0.78 0.90 0.88 0.75 0.72 0.68 0.97 0.90 0.67 0.59 0.67 0.66 0.67 0.66 0.72 0.67 0.68 0.79 0.75 0.68 0.81 0.83 1.05 1.15 1.16 1.07 1.36
1.09 0.81 1.12 0.91 0.72 1.51 0.83 0.29 0.16 0.05 0.07 0.07 0.06 0.15 0.21 0.35 0.47 0.78 0.87 0.88 0.93 0.85 0.89 1.16 1.22 0.93 0.73 0.75 0.67 0.66 0.68 0.71 0.92 0.90 0.94 1.01 0.94 0.90 0.94 1.02 1.02 1.39 1.76 1.47
0.51 0.98 1.38 1.17 0.76 0.66 0.29 0.09 0.05 0.13 0.13 0.08 0.09 0.13 0.17 0.18 0.27 0.71 0.91 0.63 0.82 0.73 0.58 0.48 0.67 0.92 0.89 0.76 0.69 0.62 0.63 0.58 0.59 0.89 1.00 1.04 1.16 1.29 1.29 1.32 1.49 1.51 1.41 1.22
0.52 0.86 1.80 1.66 1.09 0.58 0.21 0.06 0.06 0.14 0.31 0.14 0.09 0.09 0.09 0.15 0.40 0.45 0.54 0.53 0.70 0.43 0.21 0.15 0.17 0.28 0.43 0.65 0.82 0.78 0.78 0.83 0.74 0.78 0.96 1.11 1.23 1.53 1.80 1.99 1.85 1.56 1.44 1.46
0.75 1.20 1.73 1.73 1.75 0.69 0.10 0.11 0.12 0.40 0.58 0.17 0.12 0.07 0.06 0.15 0.31 0.45 0.33 0.56 0.70 0.17 0.06 0.03 0.06 0.15 0.25 0.31 0.40 0.55 0.67 0.78 0.87 0.82 0.89 1.15 1.42 1.48 1.67 1.82 1.92 1.94 1.81 1.61
0.70 0.98 0.97 1.30 1.64 0.95 0.35 0.43 0.56 0.54 0.24 0.12 0.13 0.10 0.11 0.17 0.35 0.52 0.58 0.61 0.37 0.12 0.03 0.01 0.02 0.04 0.06 0.14 0.23 0.39 0.57 0.52 0.50 0.60 0.69 0.77 0.87 1.14 1.28 1.45 1.62 1.60 1.56 1.51
0.83 0.61 0.81 0.87 1.10 1.06 0.82 0.65 0.42 0.22 0.24 0.24 0.17 0.13 0.19 0.43 0.66 0.77 0.74 0.57 0.33 0.12 0.03 0.03 0.02 0.01 0.05 0.20 0.32 0.54 0.49 0.45 0.46 0.50 0.66 0.77 0.75 0.82 1.01 1.10 1.15 1.15 1.16 1.09
0.78 0.83 1.14 1.17 0.94 0.74 1.00 0.73 0.37 0.32 0.34 0.28 0.18 0.19 0.27 0.35 0.40 0.44 0.45 0.40 0.30 0.08 0.04 0.11 0.09 0.06 0.12 0.52 0.71 0.50 0.26 0.23 0.33 0.46 0.54 0.61 0.65 0.68 0.67 0.68 0.64 0.60 0.65 0.66
0.55 0.75 0.85 1.34 0.98 0.81 0.91 1.20 0.66 0.37 0.27 0.15 0.07 0.05 0.07 0.07 0.09 0.10 0.13 0.13 0.12 0.13 0.05 0.06 0.09 0.10 0.26 0.39 0.41 0.32 0.31 0.28 0.34 0.38 0.43 0.44 0.42 0.39 0.37 0.39 0.46 0.45 0.62 0.63
0.18 0.47 1.14 1.41 1.43 1.34 1.20 1.09 1.13 0.74 0.46 0.23 0.14 0.12 0.11 0.07 0.14 0.24 0.34 0.31 0.24 0.14 0.07 0.07 0.06 0.07 0.13 0.11 0.19 0.29 0.37 0.30 0.31 0.34 0.34 0.41 0.41 0.38 0.34 0.35 0.47 0.58 0.65 0.66

GFSCGP_prec_precacc_195.txt.gz
Total_Precipitation_Accumulation
0.01 0.00 0.01 0.00 0.00 0.01 0.01 0.01 0.03 0.01 0.00 0.00 0.00 0.01 0.02 0.03 0.04 0.04 0.02 0.01 0.01 0.00 0.01 0.05 0.08 0.11 0.12 0.20 0.56 0.70 0.86 0.73 0.54 0.42 0.41 0.38 0.41 0.33 0.38 0.37 0.55 0.72 1.14 1.32
0.04 0.04 0.01 0.00 0.01 0.03 0.05 0.09 0.04 0.01 0.01 0.06 0.04 0.01 0.00 0.01 0.17 0.03 0.01 0.01 0.00 0.00 0.00 0.01 0.02 0.08 0.22 0.43 0.48 0.41 0.33 0.20 0.20 0.17 0.28 0.34 0.37 0.30 0.25 0.32 0.43 1.00 1.07 1.14
0.07 0.03 0.00 0.01 0.02 0.02 0.02 0.02 0.00 0.01 0.05 0.17 0.11 0.03 0.00 0.00 0.02 0.05 0.03 0.03 0.01 0.01 0.04 0.06 0.09 0.12 0.12 0.10 0.06 0.09 0.15 0.10 0.21 0.23 0.23 0.28 0.41 0.48 0.41 0.38 0.42 0.73 0.79 0.89
0.04 0.00 0.01 0.04 0.04 0.04 0.06 0.02 0.01 0.02 0.17 0.20 0.18 0.15 0.02 0.01 0.00 0.08 0.02 0.04 0.04 0.05 0.05 0.03 0.01 0.01 0.01 0.05 0.08 0.12 0.13 0.19 0.21 0.33 0.14 0.26 0.20 0.22 0.22 0.26 0.28 0.51 0.64 0.71
0.06 0.01 0.02 0.03 0.02 0.02 0.02 0.01 0.04 0.09 0.12 0.18 0.12 0.29 0.05 0.07 0.14 0.23 0.18 0.17 0.10 0.08 0.07 0.06 0.03 0.05 0.06 0.05 0.08 0.09 0.13 0.26 0.27 0.26 0.20 0.36 0.31 0.23 0.20 0.27 0.36 0.47 0.62 0.57
0.02 0.02 0.07 0.05 0.01 0.02 0.06 0.06 0.21 0.23 0.20 0.36 0.03 0.20 0.13 0.17 0.45 0.45 0.49 0.26 0.14 0.13 0.18 0.16 0.14 0.14 0.12 0.11 0.23 0.12 0.13 0.14 0.29 0.35 0.39 0.49 0.64 0.48 0.31 0.24 0.26 0.35 0.54 0.49
0.08 0.08 0.02 0.01 0.05 0.03 0.06 0.17 0.46 0.66 0.58 0.32 0.09 0.16 0.18 0.27 0.31 0.61 0.77 0.46 0.19 0.20 0.17 0.16 0.21 0.32 0.29 0.28 0.35 0.18 0.10 0.16 0.23 0.41 0.55 0.60 1.09 1.26 1.16 0.75 0.44 0.53 0.61 0.48
0.20 0.25 0.05 0.01 0.02 0.03 0.06 0.17 0.37 0.77 0.57 0.29 0.19 0.24 0.42 0.38 0.52 0.45 0.31 0.64 0.26 0.25 0.24 0.28 0.61 0.43 0.38 0.50 0.57 0.39 0.22 0.28 0.31 0.47 0.72 0.74 0.80 1.07 1.78 1.93 1.97 1.57 1.10 0.86
0.41 0.45 0.03 0.02 0.03 0.03 0.04 0.11 0.13 0.67 0.66 0.97 0.65 0.68 0.77 0.33 0.59 0.92 0.73 0.45 0.41 0.26 0.31 0.46 0.55 0.32 0.31 1.01 1.23 0.70 0.52 0.36 0.37 0.47 0.64 0.68 0.94 1.29 1.58 2.05 2.33 3.08 2.91 2.17
0.83 1.11 0.10 0.06 0.08 0.05 0.03 0.12 0.65 1.46 2.25 1.55 0.56 0.79 1.29 1.24 1.34 1.43 1.20 0.84 0.67 0.45 0.39 0.45 0.73 0.31 0.32 1.25 1.06 0.69 0.73 0.83 0.70 0.49 0.51 0.63 0.77 0.99 1.39 1.64 2.56 2.81 3.21 3.52
0.55 1.32 0.46 0.11 0.23 0.12 0.12 0.26 0.61 1.00 0.91 1.49 1.36 1.41 1.44 1.87 1.69 1.31 1.48 1.39 0.84 0.69 0.79 0.52 0.66 0.46 0.34 0.66 1.08 1.10 0.90 1.29 1.37 1.22 1.15 0.88 1.16 1.16 1.51 1.65 2.02 2.68 2.52 2.62
0.65 1.19 0.70 0.26 0.17 0.19 0.24 0.36 0.61 1.46 1.41 1.58 2.03 2.12 2.14 1.52 0.87 0.75 0.97 1.42 1.13 0.77 1.13 0.84 0.66 0.62 0.60 0.47 0.60 1.24 1.36 1.72 2.04 2.63 2.62 1.78 1.92 1.93 1.81 2.01 2.04 2.02 2.25 2.37
0.82 1.44 1.34 0.89 0.81 0.96 0.76 0.75 1.16 1.81 2.45 2.69 2.78 2.87 2.15 1.44 0.98 0.84 0.91 0.98 1.07 0.96 0.93 1.10 0.84 0.58 0.73 0.62 1.03 1.12 1.36 1.46 2.44 3.16 3.36 2.42 2.60 2.34 2.33 2.44 2.26 1.91 1.74 1.62
0.88 1.54 1.26 1.14 1.03 1.36 1.38 1.18 1.12 2.02 3.03 2.19 1.81 1.59 1.34 1.70 1.45 0.99 0.68 0.59 0.83 0.94 0.91 0.98 0.91 0.79 0.65 0.66 1.06 1.04 1.10 1.33 2.02 2.18 2.76 2.74 2.63 2.96 2.30 1.99 2.22 2.26 1.84 1.71
0.68 1.73 1.03 0.88 0.92 0.71 0.91 1.29 1.36 1.34 1.42 1.76 1.55 1.12 0.96 1.10 1.55 1.41 1.12 0.82 0.68 0.96 0.69 0.76 0.70 0.78 0.75 0.62 0.67 0.71 0.76 0.93 1.20 1.35 1.47 1.79 2.34 2.48 2.37 2.45 2.50 2.22 2.21 2.25
0.48 1.16 1.10 0.90 0.70 0.55 0.83 1.05 0.73 0.72 1.08 1.07 0.70 0.88 0.69 0.80 1.03 1.17 1.15 0.95 0.60 0.70 0.69 0.89 0.67 0.52 0.61 0.51 0.47 0.51 0.58 0.70 0.71 0.73 0.92 0.87 0.83 1.08 1.50 1.70 1.67 1.42 1.74 2.03
0.75 0.91 1.02 0.84 0.35 0.48 1.23 0.96 0.52 0.32 0.30 0.32 0.36 0.50 0.52 0.65 0.55 0.83 0.95 0.94 0.78 0.73 0.68 0.97 0.90 0.67 0.59 0.67 0.66 0.67 0.66 0.72 0.67 0.68 0.79 0.75 0.68 0.82 0.86 1.14 1.31 1.41 1.32 1.58
1.09 0.82 1.14 0.92 0.72 1.55 0.86 0.30 0.17 0.08 0.12 0.13 0.13 0.21 0.39 0.50 0.55 0.82 0.90 0.90 0.93 0.85 0.89 1.16 1.22 0.93 0.73 0.75 0.67 0.66 0.68 0.71 0.92 0.90 0.94 1.01 0.94 0.90 0.94 1.07 1.11 1.52 1.92 1.69
0.51 1.01 1.43 1.20 0.77 0.67 0.29 0.09 0.06 0.14 0.15 0.09 0.10 0.20 0.24 0.20 0.28 0.71 0.92 0.63 0.82 0.73 0.58 0.48 0.67 0.92 0.89 0.76 0.69 0.62 0.63 0.58 0.59 0.89 1.00 1.04 1.16 1.29 1.29 1.32 1.52 1.63 1.65 1.53
0.58 0.93 1.94 1.73 1.16 0.63 0.24 0.09 0.06 0.15 0.33 0.15 0.09 0.11 0.10 0.16 0.42 0.46 0.54 0.53 0.70 0.43 0.21 0.15 0.17 0.28 0.43 0.65 0.82 0.78 0.78 0.83 0.74 0.78 0.96 1.11 1.23 1.53 1.80 1.99 1.85 1.59 1.53 1.68
0.83 1.43 2.10 1.92 1.96 0.82 0.19 0.13 0.15 0.53 0.73 0.25 0.13 0.08 0.07 0.17 0.32 0.45 0.33 0.56 0.70 0.17 0.06 0.03 0.06 0.15 0.25 0.31 0.40 0.55 0.67 0.78 0.87 0.82 0.89 1.15 1.42 1.48 1.67 1.82 1.92 1.98 1.95 1.83
0.78 1.14 1.26 1.57 1.96 1.31 0.48 0.52 0.73 0.75 0.37 0.18 0.14 0.12 0.12 0.21 0.36 0.52 0.58 0.61 0.37 0.12 0.03 0.01 0.02 0.04 0.06 0.14 0.23 0.39 0.57 0.52 0.50 0.60 0.69 0.77 0.87 1.14 1.28 1.45 1.64 1.62 1.62 1.66
0.86 0.63 0.84 0.96 1.35 1.25 1.07 0.97 0.62 0.38 0.45 0.36 0.19 0.16 0.22 0.45 0.66 0.77 0.74 0.57 0.33 0.12 0.03 0.03 0.02 0.01 0.05 0.20 0.32 0.54 0.49 0.45 0.46 0.50 0.66 0.77 0.75 0.83 1.03 1.12 1.18 1.19 1.22 1.21
0.79 0.83 1.14 1.18 0.97 0.77 1.12 0.92 0.58 0.47 0.52 0.43 0.20 0.20 0.29 0.36 0.41 0.44 0.45 0.40 0.30 0.08 0.04 0.12 0.09 0.06 0.12 0.52 0.71 0.50 0.26 0.23 0.33 0.46 0.54 0.62 0.68 0.74 0.75 0.78 0.73 0.69 0.76 0.80
0.55 0.75 0.85 1.35 0.98 0.82 0.92 1.22 0.68 0.42 0.39 0.37 0.13 0.09 0.12 0.07 0.09 0.10 0.13 0.13 0.12 0.14 0.06 0.06 0.09 0.10 0.26 0.39 0.41 0.32 0.31 0.28 0.34 0.38 0.44 0.45 0.45 0.44 0.44 0.48 0.56 0.54 0.69 0.69
0.18 0.47 1.14 1.41 1.43 1.34 1.20 1.09 1.13 0.74 0.49 0.40 0.44 0.23 0.16 0.09 0.14 0.24 0.34 0.31 0.24 0.14 0.07 0.07 0.06 0.07 0.13 0.11 0.19 0.30 0.37 0.30 0.31 0.34 0.34 0.42 0.43 0.44 0.41 0.43 0.57 0.72 0.78 0.81

GFSCGP_prec_precacc_198.txt.gz
Total_Precipitation_Accumulation
0.01 0.00 0.01 0.00 0.00 0.01 0.01 0.01 0.03 0.01 0.00 0.00 0.00 0.01 0.02 0.03 0.04 0.04 0.02 0.01 0.01 0.00 0.01 0.05 0.08 0.11 0.12 0.20 0.56 0.70 0.86 0.73 0.55 0.43 0.41 0.38 0.41 0.33 0.38 0.37 0.55 0.72 1.14 1.32
0.04 0.04 0.01 0.00 0.01 0.03 0.05 0.09 0.04 0.01 0.01 0.06 0.04 0.01 0.00 0.01 0.17 0.03 0.01 0.01 0.00 0.00 0.00 0.01 0.02 0.08 0.22 0.43 0.48 0.41 0.33 0.20 0.20 0.17 0.28 0.34 0.37 0.30 0.25 0.32 0.43 1.00 1.07 1.14
0.07 0.03 0.00 0.01 0.02 0.02 0.02 0.02 0.00 0.01 0.05 0.17 0.11 0.03 0.00 0.00 0.02 0.05 0.03 0.03 0.01 0.01 0.04 0.06 0.09 0.12 0.12 0.10 0.06 0.09 0.15 0.10 0.21 0.24 0.24 0.28 0.41 0.48 0.41 0.38 0.42 0.73 0.79 0.89
0.05 0.00 0.01 0.04 0.04 0.04 0.06 0.02 0.01 0.02 0.17 0.20 0.18 0.16 0.02 0.01 0.00 0.08 0.02 0.04 0.04 0.05 0.05 0.03 0.01 0.01 0.01 0.05 0.08 0.12 0.13 0.19 0.21 0.33 0.15 0.27 0.20 0.22 0.22 0.26 0.28 0.51 0.64 0.71
0.07 0.01 0.02 0.03 0.02 0.02 0.03 0.01 0.04 0.09 0.13 0.20 0.15 0.30 0.05 0.07 0.14 0.23 0.18 0.17 0.10 0.08 0.07 0.06 0.03 0.05 0.06 0.05 0.08 0.09 0.13 0.26 0.27 0.26 0.21 0.36 0.31 0.23 0.20 0.27 0.36 0.47 0.62 0.57
0.03 0.02 0.07 0.05 0.01 0.02 0.06 0.06 0.21 0.24 0.23 0.45 0.05 0.21 0.14 0.17 0.45 0.45 0.49 0.26 0.14 0.13 0.18 0.16 0.14 0.14 0.12 0.11 0.23 0.12 0.13 0.14 0.29 0.35 0.40 0.49 0.64 0.48 0.31 0.24 0.26 0.35 0.54 0.49
0.08 0.08 0.02 0.01 0.05 0.03 0.06 0.19 0.49 0.70 0.63 0.40 0.10 0.16 0.18 0.27 0.31 0.61 0.77 0.46 0.19 0.20 0.17 0.16 0.21 0.32 0.29 0.28 0.35 0.18 0.10 0.16 0.23 0.41 0.55 0.60 1.09 1.26 1.16 0.75 0.44 0.53 0.61 0.48
0.25 0.27 0.05 0.01 0.03 0.03 0.06 0.20 0.43 0.79 0.58 0.30 0.19 0.25 0.42 0.38 0.52 0.45 0.31 0.64 0.26 0.25 0.24 0.28 0.61 0.43 0.38 0.50 0.57 0.39 0.22 0.28 0.31 0.47 0.72 0.74 0.80 1.07 1.78 1.93 1.97 1.58 1.12 0.89
0.58 0.57 0.04 0.02 0.03 0.04 0.05 0.16 0.14 0.72 0.69 1.02 0.65 0.68 0.77 0.33 0.59 0.92 0.73 0.45 0.41 0.26 0.31 0.46 0.55 0.32 0.31 1.01 1.23 0.70 0.52 0.36 0.37 0.47 0.64 0.68 0.94 1.29 1.58 2.05 2.34 3.09 2.93 2.19
1.14 1.40 0.14 0.06 0.09 0.08 0.08 0.15 0.70 1.54 2.42 1.67 0.59 0.79 1.29 1.24 1.34 1.43 1.20 0.84 0.67 0.45 0.39 0.45 0.73 0.31 0.32 1.25 1.06 0.69 0.73 0.83 0.70 0.49 0.52 0.63 0.78 0.99 1.39 1.64 2.56 2.81 3.21 3.52
0.73 1.54 0.54 0.15 0.28 0.17 0.20 0.44 0.78 1.20 1.19 1.82 1.58 1.52 1.46 1.88 1.69 1.32 1.48 1.39 0.84 0.69 0.79 0.52 0.66 0.46 0.34 0.66 1.08 1.10 0.90 1.29 1.37 1.22 1.15 0.89 1.16 1.16 1.51 1.65 2.02 2.68 2.52 2.62
0.77 1.33 0.80 0.29 0.19 0.22 0.34 0.59 0.95 1.93 1.86 1.99 2.47 2.38 2.21 1.56 0.88 0.75 0.98 1.43 1.14 0.77 1.13 0.84 0.66 0.62 0.60 0.47 0.60 1.24 1.36 1.72 2.04 2.63 2.62 1.79 1.93 1.94 1.82 2.01 2.04 2.02 2.25 2.38
0.86 1.53 1.42 0.91 0.82 1.04 0.84 0.78 1.20 1.89 2.62 2.83 2.96 2.96 2.19 1.49 1.04 0.93 0.98 1.04 1.10 0.98 0.93 1.10 0.84 0.58 0.73 0.62 1.03 1.12 1.36 1.46 2.44 3.16 3.36 2.42 2.60 2.35 2.34 2.45 2.26 1.91 1.75 1.65
0.88 1.54 1.28 1.16 1.04 1.39 1.41 1.19 1.12 2.04 3.12 2.30 1.89 1.62 1.35 1.73 1.53 1.22 1.00 0.87 1.01 1.05 0.93 0.98 0.91 0.79 0.65 0.66 1.06 1.04 1.10 1.33 2.02 2.18 2.76 2.74 2.63 2.96 2.30 1.99 2.22 2.27 1.85 1.74
0.68 1.75 1.03 0.88 0.92 0.71 0.91 1.29 1.36 1.34 1.43 1.79 1.57 1.13 0.96 1.10 1.56 1.50 1.41 1.25 1.09 1.18 0.78 0.76 0.70 0.78 0.75 0.62 0.67 0.71 0.76 0.93 1.20 1.35 1.47 1.79 2.34 2.48 2.37 2.45 2.50 2.22 2.21 2.26
0.51 1.21 1.11 0.91 0.70 0.55 0.83 1.05 0.73 0.72 1.08 1.07 0.70 0.89 0.69 0.80 1.03 1.18 1.22 1.20 1.10 1.09 0.78 0.93 0.69 0.53 0.61 0.51 0.47 0.51 0.58 0.70 0.71 0.73 0.92 0.87 0.83 1.08 1.50 1.70 1.67 1.42 1.74 2.06
0.75 0.92 1.02 0.85 0.35 0.48 1.23 0.96 0.52 0.32 0.30 0.32 0.36 0.50 0.52 0.65 0.56 0.83 0.95 0.96 0.84 0.81 0.73 0.98 0.91 0.68 0.59 0.67 0.66 0.67 0.66 0.72 0.67 0.68 0.79 0.75 0.68 0.82 0.86 1.14 1.31 1.41 1.32 1.59
1.09 0.82 1.14 0.92 0.72 1.55 0.86 0.30 0.17 0.08 0.12 0.13 0.13 0.21 0.40 0.50 0.56 0.82 0.90 0.91 0.93 0.85 0.89 1.16 1.22 0.93 0.73 0.75 0.67 0.66 0.68 0.71 0.92 0.90 0.94 1.01 0.94 0.90 0.94 1.07 1.11 1.52 1.92 1.70
0.51 1.02 1.45 1.21 0.78 0.67 0.29 0.09 0.06 0.15 0.15 0.09 0.10 0.21 0.25 0.22 0.31 0.72 0.92 0.64 0.82 0.73 0.58 0.48 0.67 0.92 0.89 0.76 0.69 0.62 0.63 0.58 0.59 0.89 1.00 1.04 1.16 1.29 1.29 1.32 1.52 1.63 1.65 1.54
0.61 0.98 2.02 1.77 1.19 0.64 0.25 0.09 0.06 0.16 0.34 0.15 0.10 0.12 0.14 0.20 0.47 0.47 0.54 0.53 0.70 0.43 0.21 0.15 0.17 0.28 0.43 0.65 0.82 0.78 0.78 0.83 0.74 0.78 0.96 1.11 1.23 1.53 1.80 1.99 1.85 1.59 1.53 1.68
0.86 1.48 2.23 2.10 2.09 0.90 0.22 0.13 0.15 0.57 0.77 0.32 0.26 0.19 0.13 0.21 0.34 0.46 0.33 0.56 0.70 0.17 0.06 0.03 0.06 0.15 0.25 0.31 0.40 0.55 0.67 0.78 0.87 0.82 0.89 1.15 1.42 1.48 1.67 1.82 1.92 1.98 1.95 1.83
0.80 1.15 1.32 1.62 2.10 1.49 0.50 0.53 0.76 0.79 0.37 0.21 0.19 0.23 0.25 0.26 0.41 0.59 0.62 0.61 0.37 0.12 0.03 0.01 0.02 0.04 0.06 0.14 0.23 0.39 0.57 0.52 0.50 0.60 0.69 0.77 0.87 1.14 1.28 1.45 1.64 1.62 1.62 1.66
0.87 0.64 0.85 0.96 1.36 1.25 1.07 0.97 0.62 0.38 0.46 0.39 0.23 0.28 0.79 0.72 0.73 0.79 0.82 0.59 0.33 0.12 0.03 0.03 0.02 0.01 0.05 0.20 0.32 0.54 0.49 0.45 0.46 0.50 0.66 0.77 0.75 0.83 1.03 1.12 1.18 1.19 1.22 1.22
0.79 0.83 1.14 1.18 0.97 0.77 1.12 0.93 0.58 0.47 0.53 0.44 0.25 0.23 0.50 0.87 0.63 0.56 0.48 0.40 0.30 0.08 0.04 0.12 0.09 0.06 0.12 0.52 0.71 0.50 0.26 0.23 0.33 0.46 0.54 0.62 0.68 0.74 0.75 0.78 0.74 0.71 0.79 0.83
0.55 0.75 0.85 1.35 0.98 0.82 0.93 1.22 0.68 0.42 0.40 0.40 0.19 0.16 0.19 0.34 0.19 0.12 0.14 0.13 0.12 0.14 0.06 0.06 0.09 0.10 0.26 0.39 0.41 0.32 0.31 0.28 0.34 0.38 0.44 0.45 0.45 0.45 0.44 0.48 0.57 0.56 0.73 0.74
0.18 0.48 1.14 1.42 1.43 1.34 1.20 1.09 1.13 0.74 0.49 0.42 0.52 0.38 0.37 0.28 0.15 0.25 0.35 0.33 0.24 0.14 0.07 0.07 0.06 0.07 0.13 0.11 0.19 0.30 0.37 0.30 0.31 0.34 0.34 0.42 0.43 0.44 0.41 0.43 0.58 0.72 0.79 0.83

GFSCGP_prec_precacc_201.txt.gz
Total_Precipitation_Accumulation
0.01 0.00 0.01 0.01 0.00 0.01 0.01 0.01 0.03 0.01 0.00 0.00 0.00 0.01 0.02 0.03 0.04 0.04 0.02 0.01 0.01 0.00 0.01 0.05 0.08 0.11 0.12 0.20 0.56 0.70 0.86 0.73 0.55 0.44 0.43 0.40 0.41 0.33 0.38 0.37 0.55 0.72 1.14 1.32
0.05 0.04 0.01 0.00 0.01 0.03 0.05 0.09 0.04 0.01 0.01 0.06 0.04 0.01 0.00 0.01 0.17 0.03 0.01 0.01 0.00 0.00 0.00 0.01 0.02 0.08 0.22 0.43 0.48 0.41 0.33 0.20 0.20 0.18 0.29 0.34 0.37 0.30 0.25 0.32 0.43 1.00 1.07 1.14
0.07 0.03 0.00 0.01 0.02 0.02 0.02 0.02 0.00 0.01 0.05 0.17 0.11 0.03 0.00 0.00 0.02 0.05 0.03 0.03 0.01 0.01 0.04 0.06 0.09 0.12 0.12 0.10 0.06 0.09 0.15 0.10 0.21 0.24 0.25 0.30 0.42 0.49 0.42 0.38 0.42 0.73 0.79 0.89
0.06 0.00 0.01 0.04 0.04 0.04 0.07 0.02 0.01 0.02 0.17 0.21 0.20 0.17 0.02 0.01 0.00 0.08 0.02 0.04 0.04 0.05 0.05 0.03 0.01 0.01 0.01 0.05 0.08 0.12 0.13 0.19 0.21 0.33 0.15 0.27 0.21 0.22 0.22 0.26 0.28 0.51 0.64 0.71
0.08 0.01 0.02 0.03 0.02 0.02 0.03 0.02 0.04 0.09 0.14 0.24 0.20 0.31 0.05 0.07 0.14 0.23 0.18 0.17 0.10 0.08 0.07 0.06 0.03 0.05 0.06 0.05 0.08 0.09 0.13 0.26 0.27 0.26 0.21 0.36 0.31 0.23 0.20 0.27 0.36 0.47 0.62 0.58
0.03 0.02 0.07 0.05 0.01 0.02 0.06 0.06 0.21 0.24 0.24 0.48 0.07 0.21 0.15 0.17 0.45 0.45 0.49 0.26 0.14 0.13 0.19 0.16 0.14 0.14 0.12 0.11 0.23 0.12 0.13 0.14 0.29 0.35 0.40 0.49 0.64 0.48 0.31 0.24 0.26 0.35 0.54 0.49
0.09 0.08 0.02 0.01 0.07 0.03 0.07 0.21 0.54 0.75 0.65 0.42 0.10 0.17 0.19 0.27 0.31 0.61 0.77 0.46 0.19 0.20 0.17 0.16 0.21 0.32 0.29 0.28 0.35 0.18 0.10 0.16 0.23 0.41 0.55 0.60 1.09 1.26 1.16 0.75 0.44 0.53 0.61 0.48
0.34 0.30 0.05 0.01 0.05 0.04 0.07 0.25 0.54 0.93 0.62 0.31 0.20 0.26 0.42 0.38 0.52 0.45 0.31 0.64 0.26 0.25 0.24 0.28 0.61 0.43 0.38 0.50 0.57 0.39 0.22 0.28 0.31 0.47 0.72 0.74 0.80 1.07 1.78 1.93 1.97 1.58 1.12 0.90
0.78 0.69 0.06 0.02 0.03 0.08 0.07 0.23 0.17 0.81 0.74 1.11 0.68 0.68 0.77 0.33 0.59 0.92 0.73 0.45 0.41 0.26 0.31 0.46 0.55 0.32 0.31 1.01 1.23 0.70 0.52 0.36 0.37 0.47 0.65 0.68 0.94 1.29 1.58 2.05 2.34 3.09 2.93 2.20
1.38 1.55 0.16 0.07 0.09 0.09 0.16 0.29 0.84 1.66 2.62 1.89 0.69 0.79 1.29 1.24 1.34 1.43 1.20 0.84 0.67 0.45 0.39 0.45 0.73 0.31 0.33 1.26 1.06 0.69 0.73 0.83 0.70 0.49 0.52 0.64 0.78 0.99 1.39 1.64 2.56 2.81 3.21 3.52
0.78 1.65 0.56 0.16 0.32 0.30 0.32 0.61 1.01 1.66 1.73 2.35 1.94 1.69 1.50 1.88 1.69 1.32 1.48 1.39 0.84 0.69 0.79 0.52 0.66 0.46 0.34 0.66 1.08 1.10 0.90 1.29 1.37 1.22 1.16 0.90 1.17 1.17 1.51 1.65 2.02 2.68 2.52 2.62
0.82 1.42 0.84 0.31 0.20 0.26 0.46 0.81 1.13 2.19 2.16 2.24 2.71 2.49 2.25 1.58 0.89 0.77 0.98 1.43 1.14 0.78 1.14 0.84 0.66 0.63 0.60 0.48 0.62 1.25 1.37 1.73 2.04 2.63 2.63 1.79 1.93 1.94 1.82 2.02 2.04 2.02 2.25 2.38
0.90 1.58 1.47 0.92 0.82 1.09 0.95 0.92 1.35 2.08 2.82 2.99 3.13 3.01 2.19 1.49 1.04 0.94 1.05 1.13 1.17 1.06 0.99 1.12 0.84 0.60 0.76 0.63 1.05 1.17 1.40 1.47 2.45 3.16 3.37 2.43 2.61 2.35 2.34 2.45 2.26 1.91 1.75 1.65
0.92 1.56 1.28 1.17 1.04 1.40 1.42 1.20 1.14 2.08 3.20 2.34 1.92 1.63 1.35 1.73 1.53 1.22 1.01 0.93 1.18 1.28 1.18 1.18 0.95 0.80 0.67 0.68 1.07 1.05 1.11 1.34 2.02 2.18 2.76 2.74 2.63 2.97 2.31 2.00 2.23 2.27 1.85 1.74
0.70 1.75 1.04 0.88 0.92 0.71 0.91 1.30 1.36 1.36 1.45 1.80 1.58 1.13 0.96 1.10 1.56 1.50 1.41 1.25 1.12 1.30 1.06 1.10 0.98 0.96 0.79 0.64 0.68 0.72 0.76 0.94 1.20 1.35 1.47 1.79 2.34 2.48 2.38 2.46 2.50 2.23 2.22 2.27
0.55 1.26 1.14 0.94 0.70 0.55 0.83 1.05 0.73 0.72 1.09 1.08 0.71 0.89 0.69 0.80 1.03 1.18 1.22 1.20 1.11 1.13 0.92 1.06 0.92 0.91 0.82 0.61 0.53 0.54 0.59 0.70 0.71 0.73 0.92 0.87 0.83 1.08 1.50 1.71 1.67 1.42 1.75 2.07
0.79 0.96 1.03 0.85 0.35 0.48 1.23 0.96 0.52 0.32 0.30 0.32 0.36 0.50 0.52 0.65 0.56 0.83 0.95 0.96 0.84 0.81 0.75 1.01 0.94 0.72 0.64 0.72 0.71 0.72 0.70 0.72 0.67 0.68 0.79 0.76 0.70 0.83 0.87 1.14 1.33 1.44 1.35 1.62
1.11 0.82 1.14 0.92 0.72 1.55 0.86 0.30 0.17 0.08 0.12 0.13 0.13 0.21 0.40 0.50 0.56 0.82 0.90 0.91 0.93 0.85 0.89 1.16 1.22 0.94 0.74 0.75 0.67 0.68 0.71 0.73 0.93 0.91 0.94 1.02 0.95 0.92 0.96 1.08 1.11 1.52 1.92 1.70
0.51 1.02 1.46 1.22 0.78 0.67 0.29 0.09 0.06 0.15 0.15 0.09 0.10 0.21 0.25 0.22 0.31 0.73 0.95 0.66 0.82 0.73 0.58 0.48 0.67 0.92 0.89 0.76 0.69 0.62 0.63 0.59 0.60 0.90 1.00 1.04 1.16 1.29 1.29 1.32 1.52 1.63 1.65 1.54
0.62 1.01 2.06 1.79 1.22 0.64 0.26 0.09 0.06 0.16 0.35 0.15 0.10 0.12 0.14 0.20 0.47 0.47 0.56 0.59 0.71 0.44 0.21 0.15 0.17 0.28 0.43 0.65 0.82 0.78 0.78 0.83 0.74 0.78 0.96 1.11 1.23 1.53 1.80 1.99 1.85 1.59 1.53 1.68
0.88 1.50 2.26 2.16 2.23 1.02 0.29 0.13 0.15 0.60 0.78 0.32 0.26 0.19 0.14 0.23 0.36 0.48 0.36 0.60 0.74 0.20 0.07 0.03 0.06 0.15 0.25 0.31 0.40 0.55 0.67 0.78 0.87 0.82 0.89 1.15 1.42 1.48 1.67 1.82 1.92 1.98 1.95 1.83
0.83 1.18 1.38 1.66 2.13 1.57 0.52 0.54 0.76 0.79 0.37 0.21 0.19 0.23 0.28 0.30 0.44 0.62 0.63 0.63 0.40 0.24 0.15 0.06 0.03 0.04 0.06 0.14 0.23 0.39 0.57 0.52 0.50 0.60 0.69 0.77 0.87 1.14 1.28 1.45 1.64 1.62 1.62 1.66
0.91 0.65 0.85 0.96 1.37 1.25 1.07 0.97 0.62 0.38 0.46 0.39 0.23 0.29 0.84 0.92 0.99 0.93 0.93 0.71 0.50 0.29 0.17 0.09 0.02 0.01 0.05 0.20 0.32 0.54 0.49 0.45 0.46 0.50 0.66 0.77 0.75 0.83 1.03 1.12 1.18 1.19 1.22 1.22
0.79 0.83 1.14 1.18 0.97 0.77 1.13 0.93 0.58 0.47 0.53 0.44 0.25 0.26 0.60 1.05 1.16 1.01 0.69 0.70 0.40 0.17 0.10 0.13 0.09 0.06 0.12 0.52 0.71 0.50 0.26 0.23 0.33 0.46 0.54 0.62 0.68 0.74 0.75 0.78 0.74 0.71 0.79 0.83
0.55 0.75 0.85 1.35 0.98 0.82 0.93 1.22 0.68 0.42 0.40 0.40 0.19 0.18 0.28 0.50 0.62 0.67 0.30 0.16 0.14 0.14 0.06 0.06 0.09 0.10 0.26 0.39 0.41 0.32 0.31 0.28 0.34 0.38 0.44 0.45 0.45 0.45 0.44 0.48 0.57 0.56 0.73 0.74
0.18 0.48 1.14 1.42 1.43 1.34 1.20 1.09 1.13 0.74 0.49 0.42 0.52 0.41 0.46 0.44 0.28 0.50 0.40 0.33 0.25 0.14 0.07 0.07 0.06 0.07 0.13 0.11 0.19 0.30 0.37 0.30 0.31 0.34 0.34 0.42 0.43 0.44 0.41 0.43 0.58 0.72 0.79 0.83

GFSCGP_prec_precacc_204.txt.gz
Total_Precipitation_Accumulation
0.01 0.00 0.02 0.01 0.00 0.01 0.01 0.01 0.03 0.01 0.00 0.00 0.00 0.01 0.02 0.03 0.04 0.04 0.02 0.01 0.01 0.00 0.01 0.05 0.08 0.11 0.12 0.20 0.56 0.70 0.86 0.73 0.55 0.44 0.43 0.40 0.42 0.33 0.38 0.37 0.55 0.72 1.14 1.32
0.05 0.04 0.01 0.00 0.01 0.03 0.05 0.09 0.04 0.01 0.01 0.06 0.04 0.01 0.00 0.01 0.17 0.03 0.01 0.01 0.00 0.00 0.00 0.01 0.02 0.08 0.22 0.43 0.48 0.41 0.33 0.20 0.20 0.18 0.29 0.34 0.37 0.30 0.25 0.32 0.43 1.00 1.07 1.14
0.08 0.03 0.00 0.01 0.02 0.03 0.02 0.02 0.00 0.01 0.05 0.17 0.11 0.04 0.00 0.00 0.02 0.05 0.03 0.03 0.01 0.01 0.04 0.06 0.09 0.12 0.12 0.10 0.06 0.09 0.15 0.10 0.21 0.24 0.25 0.30 0.42 0.50 0.42 0.38 0.42 0.73 0.79 0.89
0.06 0.00 0.01 0.04 0.04 0.06 0.07 0.02 0.01 0.03 0.19 0.22 0.25 0.19 0.02 0.01 0.00 0.08 0.02 0.04 0.04 0.05 0.05 0.03 0.01 0.01 0.01 0.05 0.08 0.12 0.13 0.19 0.21 0.33 0.15 0.27 0.21 0.22 0.22 0.26 0.28 0.51 0.64 0.71
0.08 0.01 0.02 0.03 0.02 0.03 0.03 0.03 0.05 0.10 0.16 0.27 0.23 0.34 0.05 0.07 0.14 0.23 0.18 0.17 0.10 0.08 0.07 0.06 0.03 0.05 0.06 0.05 0.08 0.09 0.13 0.26 0.27 0.26 0.21 0.36 0.31 0.23 0.20 0.27 0.36 0.47 0.62 0.58
0.03 0.02 0.07 0.05 0.01 0.03 0.06 0.06 0.22 0.25 0.26 0.53 0.09 0.22 0.15 0.17 0.45 0.45 0.49 0.26 0.14 0.13 0.19 0.16 0.14 0.14 0.12 0.11 0.23 0.12 0.13 0.14 0.29 0.35 0.40 0.49 0.64 0.48 0.31 0.24 0.26 0.35 0.54 0.50
0.10 0.08 0.02 0.03 0.10 0.05 0.12 0.25 0.59 0.79 0.66 0.43 0.10 0.18 0.20 0.27 0.31 0.61 0.77 0.46 0.19 0.20 0.17 0.16 0.21 0.32 0.29 0.28 0.35 0.18 0.10 0.16 0.23 0.41 0.55 0.60 1.09 1.26 1.16 0.75 0.44 0.53 0.61 0.48
0.43 0.35 0.05 0.01 0.07 0.05 0.08 0.30 0.62 1.03 0.68 0.33 0.21 0.27 0.42 0.38 0.52 0.45 0.31 0.64 0.26 0.25 0.24 0.28 0.61 0.43 0.38 0.50 0.57 0.39 0.22 0.28 0.31 0.47 0.72 0.74 0.81 1.07 1.79 1.93 1.97 1.58 1.12 0.90
0.94 0.81 0.07 0.02 0.03 0.08 0.07 0.26 0.20 0.86 0.80 1.20 0.71 0.68 0.77 0.33 0.59 0.92 0.73 0.45 0.41 0.26 0.31 0.46 0.55 0.32 0.31 1.01 1.23 0.70 0.52 0.36 0.37 0.47 0.65 0.68 0.95 1.30 1.60 2.06 2.34 3.09 2.93 2.20
1.51 1.66 0.19 0.08 0.12 0.12 0.19 0.31 0.88 1.73 2.86 2.16 0.80 0.80 1.29 1.24 1.34 1.43 1.20 0.84 0.67 0.45 0.39 0.45 0.73 0.31 0.33 1.26 1.06 0.69 0.73 0.83 0.70 0.49 0.53 0.66 0.81 1.04 1.43 1.66 2.57 2.81 3.21 3.52
0.86 1.74 0.58 0.16 0.34 0.32 0.36 0.71 1.13 1.83 1.98 2.61 2.13 1.85 1.56 1.89 1.70 1.32 1.48 1.39 0.84 0.69 0.79 0.52 0.66 0.46 0.35 0.66 1.08 1.10 0.90 1.29 1.37 1.23 1.19 0.95 1.23 1.23 1.56 1.66 2.02 2.68 2.52 2.62
0.86 1.55 0.90 0.31 0.20 0.26 0.46 0.82 1.17 2.27 2.29 2.35 2.83 2.54 2.31 1.62 0.91 0.77 0.98 1.43 1.14 0.78 1.14 0.84 0.66 0.63 0.60 0.49 0.62 1.27 1.40 1.76 2.10 2.71 2.74 1.94 2.02 2.00 1.84 2.02 2.04 2.02 2.25 2.38
0.91 1.66 1.54 0.93 0.83 1.09 0.96 0.95 1.41 2.18 2.92 3.07 3.23 3.04 2.20 1.49 1.05 0.95 1.05 1.13 1.18 1.06 1.02 1.16 0.86 0.61 0.77 0.65 1.12 1.26 1.51 1.65 2.66 3.34 3.50 2.54 2.69 2.40 2.35 2.45 2.26 1.91 1.75 1.65
1.02 1.65 1.29 1.17 1.04 1.40 1.43 1.22 1.18 2.13 3.25 2.37 1.95 1.64 1.36 1.74 1.55 1.23 1.01 0.93 1.19 1.28 1.19 1.23 1.09 0.92 0.75 0.72 1.09 1.12 1.29 1.49 2.14 2.26 2.83 2.80 2.66 2.98 2.31 2.01 2.23 2.27 1.86 1.75
0.84 1.83 1.04 0.88 0.92 0.71 0.91 1.30 1.37 1.37 1.45 1.80 1.58 1.13 0.97 1.10 1.56 1.51 1.42 1.25 1.12 1.30 1.06 1.10 1.03 1.07 0.96 0.77 0.78 0.78 0.86 1.15 1.40 1.53 1.63 1.94 2.41 2.51 2.41 2.50 2.53 2.25 2.24 2.28
0.62 1.33 1.15 0.95 0.71 0.55 0.83 1.05 0.73 0.73 1.10 1.09 0.72 0.89 0.69 0.80 1.03 1.18 1.22 1.20 1.11 1.13 0.92 1.06 0.92 0.95 0.94 0.65 0.57 0.62 0.71 0.89 0.90 0.89 1.09 1.02 0.94 1.12 1.54 1.75 1.71 1.45 1.77 2.09
0.85 1.06 1.12 0.92 0.35 0.48 1.24 0.96 0.52 0.32 0.30 0.33 0.36 0.50 0.52 0.65 0.56 0.83 0.95 0.96 0.84 0.81 0.75 1.01 0.94 0.73 0.66 0.73 0.71 0.75 0.79 0.87 0.86 0.89 1.00 0.93 0.75 0.85 0.88 1.15 1.35 1.45 1.36 1.62
1.21 0.93 1.22 0.95 0.73 1.56 0.86 0.30 0.17 0.08 0.12 0.13 0.13 0.21 0.40 0.50 0.56 0.82 0.90 0.91 0.93 0.85 0.89 1.16 1.22 0.94 0.74 0.75 0.67 0.68 0.72 0.76 0.98 1.02 1.13 1.21 1.10 0.99 0.98 1.09 1.13 1.54 1.95 1.72
0.53 1.06 1.55 1.25 0.78 0.67 0.29 0.09 0.06 0.15 0.15 0.09 0.10 0.21 0.25 0.22 0.31 0.73 0.95 0.66 0.83 0.74 0.59 0.48 0.67 0.93 0.89 0.76 0.69 0.62 0.63 0.59 0.61 0.91 1.04 1.09 1.22 1.34 1.32 1.34 1.53 1.63 1.66 1.54
0.62 1.02 2.08 1.84 1.27 0.66 0.26 0.09 0.06 0.17 0.36 0.15 0.10 0.12 0.14 0.20 0.47 0.47 0.56 0.59 0.73 0.46 0.24 0.16 0.19 0.29 0.44 0.65 0.83 0.79 0.79 0.83 0.74 0.78 0.97 1.12 1.24 1.55 1.82 2.01 1.86 1.59 1.54 1.68
0.88 1.50 2.27 2.18 2.27 1.04 0.29 0.14 0.15 0.62 0.80 0.32 0.26 0.19 0.14 0.23 0.36 0.48 0.36 0.60 0.74 0.22 0.09 0.06 0.07 0.16 0.25 0.32 0.40 0.56 0.68 0.79 0.87 0.82 0.89 1.16 1.42 1.48 1.68 1.83 1.93 1.98 1.95 1.83
0.90 1.21 1.42 1.67 2.14 1.58 0.53 0.54 0.76 0.79 0.37 0.21 0.19 0.23 0.28 0.31 0.44 0.62 0.63 0.63 0.40 0.24 0.22 0.21 0.11 0.06 0.09 0.16 0.24 0.39 0.57 0.52 0.50 0.60 0.69 0.77 0.87 1.14 1.28 1.46 1.64 1.62 1.62 1.66
0.99 0.68 0.86 0.97 1.37 1.25 1.07 0.97 0.62 0.38 0.46 0.39 0.23 0.29 0.84 0.92 0.99 0.98 0.99 0.72 0.50 0.31 0.32 0.28 0.18 0.11 0.07 0.21 0.33 0.54 0.50 0.45 0.46 0.50 0.66 0.78 0.75 0.83 1.03 1.12 1.18 1.19 1.22 1.22
0.79 0.83 1.14 1.18 0.97 0.77 1.13 0.93 0.58 0.47 0.53 0.44 0.25 0.26 0.60 1.06 1.17 1.38 1.19 0.95 0.49 0.26 0.28 0.35 0.21 0.13 0.13 0.52 0.71 0.50 0.26 0.23 0.33 0.46 0.54 0.62 0.68 0.75 0.75 0.79 0.74 0.71 0.79 0.83
0.55 0.75 0.85 1.35 0.98 0.82 0.93 1.22 0.68 0.42 0.40 0.40 0.19 0.18 0.28 0.52 0.65 0.99 0.93 0.49 0.40 0.25 0.19 0.26 0.17 0.13 0.26 0.39 0.41 0.32 0.31 0.28 0.34 0.38 0.44 0.45 0.45 0.45 0.44 0.48 0.57 0.56 0.73 0.74
0.18 0.48 1.14 1.42 1.43 1.34 1.20 1.09 1.13 0.74 0.49 0.42 0.52 0.41 0.46 0.50 0.43 0.63 0.55 0.51 0.34 0.16 0.08 0.08 0.07 0.08 0.14 0.11 0.19 0.30 0.37 0.30 0.31 0.34 0.34 0.42 0.43 0.44 0.41 0.43 0.58 0.73 0.79 0.83